Time,TemperatureF,DewpointF,PressureIn,WindDirection,WindDirectionDegrees,WindSpeedMPH,WindSpeedGustMPH,Humidity,HourlyPrecipIn,Conditions,Clouds,dailyrainin,SolarRadiationWatts/m^2,SoftwareType,DateUTC
2013-11-10 00:00:00,45.9,29.7,30.01,SE,138,1.0,4.0,53,0.00,,,0.00,0,Wunderground v.1.15,2013-11-10 05:00:00,
2013-11-10 00:01:00,45.8,29.6,30.01,SE,130,2.0,4.0,53,0.00,,,0.00,0,Wunderground v.1.15,2013-11-10 05:01:00,
2013-11-10 00:02:00,45.8,29.6,30.01,SE,130,2.0,4.0,53,0.00,,,0.00,0,Wunderground v.1.15,2013-11-10 05:02:00,
2013-11-10 00:03:00,45.8,29.6,30.01,SE,135,2.0,4.0,53,0.00,,,0.00,0,Wunderground v.1.15,2013-11-10 05:03:00,
2013-11-10 00:05:00,45.8,29.6,30.01,SE,142,2.0,4.0,53,0.00,,,0.00,0,Wunderground v.1.15,2013-11-10 05:05:00,
2013-11-10 00:07:00,45.7,29.5,30.01,SE,136,2.0,4.0,53,0.00,,,0.00,0,Wunderground v.1.15,2013-11-10 05:07:00,
2013-11-10 00:11:00,45.6,29.9,30.01,SE,141,2.0,5.0,54,0.00,,,0.00,0,Wunderground v.1.15,2013-11-10 05:11:00,
2013-11-10 00:12:00,45.5,29.8,30.01,SE,141,2.0,5.0,54,0.00,,,0.00,0,Wunderground v.1.15,2013-11-10 05:12:00,
2013-11-10 00:13:00,45.5,29.8,30.01,SE,140,2.0,5.0,54,0.00,,,0.00,0,Wunderground v.1.15,2013-11-10 05:13:00,
2013-11-10 00:16:00,45.4,29.7,30.01,SE,128,2.0,5.0,54,0.00,,,0.00,0,Wunderground v.1.15,2013-11-10 05:16:00,
2013-11-10 00:19:00,45.4,29.7,30.01,SE,133,2.0,5.0,54,0.00,,,0.00,0,Wunderground v.1.15,2013-11-10 05:19:00,
2013-11-10 00:23:00,45.4,29.7,30.00,ESE,122,3.0,5.0,54,0.00,,,0.00,0,Wunderground v.1.15,2013-11-10 05:23:00,
2013-11-10 00:25:00,45.5,30.3,30.01,ESE,117,3.0,5.0,55,0.00,,,0.00,0,Wunderground v.1.15,2013-11-10 05:25:00,
2013-11-10 00:26:00,45.5,29.8,30.01,SE,126,3.0,5.0,54,0.00,,,0.00,0,Wunderground v.1.15,2013-11-10 05:26:00,
2013-11-10 00:28:00,45.4,29.7,30.01,SE,126,2.0,5.0,54,0.00,,,0.00,0,Wunderground v.1.15,2013-11-10 05:28:00,
2013-11-10 00:30:00,45.4,30.2,30.01,SE,126,2.0,2.0,55,0.00,,,0.00,0,Wunderground v.1.15,2013-11-10 05:30:00,
2013-11-10 00:31:00,45.4,30.2,30.01,SE,126,2.0,2.0,55,0.00,,,0.00,0,Wunderground v.1.15,2013-11-10 05:31:00,
2013-11-10 00:34:00,45.3,30.5,30.01,SE,126,1.0,2.0,56,0.00,,,0.00,0,Wunderground v.1.15,2013-11-10 05:34:00,
2013-11-10 00:35:00,45.3,30.5,30.01,SE,126,0.0,2.0,56,0.00,,,0.00,0,Wunderground v.1.15,2013-11-10 05:35:00,
2013-11-10 00:37:00,45.2,30.9,30.00,SE,126,0.0,2.0,57,0.00,,,0.00,0,Wunderground v.1.15,2013-11-10 05:37:00,
2013-11-10 00:39:00,45.1,30.8,30.00,SE,126,0.0,2.0,57,0.00,,,0.00,0,Wunderground v.1.15,2013-11-10 05:39:00,
2013-11-10 00:40:00,45.0,30.7,30.00,SE,126,0.0,0.0,57,0.00,,,0.00,0,Wunderground v.1.15,2013-11-10 05:40:00,
2013-11-10 00:42:00,44.9,30.1,30.00,SE,126,0.0,0.0,56,0.00,,,0.00,0,Wunderground v.1.15,2013-11-10 05:42:00,
2013-11-10 00:47:00,44.8,30.0,30.00,SSE,167,0.0,1.0,56,0.00,,,0.00,0,Wunderground v.1.15,2013-11-10 05:47:00,
2013-11-10 00:48:00,44.8,30.0,30.00,South,178,0.0,1.0,56,0.00,,,0.00,0,Wunderground v.1.15,2013-11-10 05:48:00,
2013-11-10 00:52:00,44.8,30.0,30.00,South,178,0.0,0.0,56,0.00,,,0.00,0,Wunderground v.1.15,2013-11-10 05:52:00,
2013-11-10 00:53:00,44.7,30.0,30.00,South,178,0.0,0.0,56,0.00,,,0.00,0,Wunderground v.1.15,2013-11-10 05:53:00,
2013-11-10 00:56:00,44.7,30.0,30.00,SSW,213,0.0,1.0,56,0.00,,,0.00,0,Wunderground v.1.15,2013-11-10 05:56:00,
2013-11-10 00:57:00,44.7,30.0,30.00,SSW,213,0.0,1.0,56,0.00,,,0.00,0,Wunderground v.1.15,2013-11-10 05:57:00,
2013-11-10 00:58:00,44.7,30.4,30.00,SSW,211,0.0,1.0,57,0.00,,,0.00,0,Wunderground v.1.15,2013-11-10 05:58:00,
2013-11-10 01:01:00,44.8,30.0,30.00,SE,145,0.0,2.0,56,0.00,,,0.00,0,Wunderground v.1.15,2013-11-10 06:01:00,
2013-11-10 01:02:00,44.8,30.0,30.00,SE,145,0.0,2.0,56,0.00,,,0.00,0,Wunderground v.1.15,2013-11-10 06:02:00,
2013-11-10 01:03:00,44.9,30.1,30.00,SSE,148,0.0,2.0,56,0.00,,,0.00,0,Wunderground v.1.15,2013-11-10 06:03:00,
2013-11-10 01:04:00,44.9,30.1,30.00,South,174,0.0,2.0,56,0.00,,,0.00,0,Wunderground v.1.15,2013-11-10 06:04:00,
2013-11-10 01:05:00,44.9,30.1,29.99,South,178,0.0,2.0,56,0.00,,,0.00,0,Wunderground v.1.15,2013-11-10 06:05:00,
2013-11-10 01:07:00,44.9,30.1,29.99,SE,142,1.0,2.0,56,0.00,,,0.00,0,Wunderground v.1.15,2013-11-10 06:07:00,
2013-11-10 01:08:00,44.9,30.1,30.00,SE,141,1.0,2.0,56,0.00,,,0.00,0,Wunderground v.1.15,2013-11-10 06:08:00,
2013-11-10 01:12:00,44.9,30.1,29.99,SE,139,1.0,1.0,56,0.00,,,0.00,0,Wunderground v.1.15,2013-11-10 06:12:00,
2013-11-10 01:15:00,44.9,30.1,29.99,SE,128,1.0,2.0,56,0.00,,,0.00,0,Wunderground v.1.15,2013-11-10 06:15:00,
2013-11-10 01:16:00,44.9,30.1,29.99,SE,128,1.0,2.0,56,0.00,,,0.00,0,Wunderground v.1.15,2013-11-10 06:16:00,
2013-11-10 01:17:00,44.9,30.1,29.99,SE,128,1.0,2.0,56,0.00,,,0.00,0,Wunderground v.1.15,2013-11-10 06:17:00,
2013-11-10 01:19:00,44.9,30.1,29.99,SE,128,1.0,2.0,56,0.00,,,0.00,0,Wunderground v.1.15,2013-11-10 06:19:00,
2013-11-10 01:22:00,44.8,30.0,29.99,South,183,1.0,1.0,56,0.00,,,0.00,0,Wunderground v.1.15,2013-11-10 06:22:00,
2013-11-10 01:23:00,44.8,30.0,29.99,SSW,198,1.0,1.0,56,0.00,,,0.00,0,Wunderground v.1.15,2013-11-10 06:23:00,
2013-11-10 01:26:00,44.6,30.3,29.99,SW,216,0.0,1.0,57,0.00,,,0.00,0,Wunderground v.1.15,2013-11-10 06:26:00,
2013-11-10 01:28:00,44.5,30.2,29.99,SW,227,1.0,1.0,57,0.00,,,0.00,0,Wunderground v.1.15,2013-11-10 06:28:00,
2013-11-10 01:29:00,44.5,30.2,29.99,SW,227,1.0,1.0,57,0.00,,,0.00,0,Wunderground v.1.15,2013-11-10 06:29:00,
2013-11-10 01:32:00,44.4,29.7,29.98,SSE,163,1.0,2.0,56,0.00,,,0.00,0,Wunderground v.1.15,2013-11-10 06:32:00,
2013-11-10 01:33:00,44.4,29.7,29.98,SSE,163,1.0,2.0,56,0.00,,,0.00,0,Wunderground v.1.15,2013-11-10 06:33:00,
2013-11-10 01:34:00,44.4,30.1,29.99,SSE,163,1.0,2.0,57,0.00,,,0.00,0,Wunderground v.1.15,2013-11-10 06:34:00,
2013-11-10 01:37:00,44.4,29.7,29.98,SE,142,1.0,4.0,56,0.00,,,0.00,0,Wunderground v.1.15,2013-11-10 06:37:00,
2013-11-10 01:38:00,44.4,30.1,29.98,ESE,122,1.0,4.0,57,0.00,,,0.00,0,Wunderground v.1.15,2013-11-10 06:38:00,
2013-11-10 01:39:00,44.4,30.1,29.98,SSE,156,2.0,4.0,57,0.00,,,0.00,0,Wunderground v.1.15,2013-11-10 06:39:00,
2013-11-10 01:40:00,44.4,29.7,29.98,SE,146,2.0,2.0,56,0.00,,,0.00,0,Wunderground v.1.15,2013-11-10 06:40:00,
2013-11-10 01:44:00,44.4,29.7,29.98,ESE,116,2.0,4.0,56,0.00,,,0.00,0,Wunderground v.1.15,2013-11-10 06:44:00,
2013-11-10 01:45:00,44.4,29.7,29.98,SE,135,2.0,4.0,56,0.00,,,0.00,0,Wunderground v.1.15,2013-11-10 06:45:00,
2013-11-10 01:46:00,44.4,29.7,29.98,SSE,149,2.0,4.0,56,0.00,,,0.00,0,Wunderground v.1.15,2013-11-10 06:46:00,
2013-11-10 01:49:00,44.3,30.0,29.98,SSE,147,2.0,4.0,57,0.00,,,0.00,0,Wunderground v.1.15,2013-11-10 06:49:00,
2013-11-10 01:51:00,44.3,30.0,29.98,SE,146,2.0,2.0,57,0.00,,,0.00,0,Wunderground v.1.15,2013-11-10 06:51:00,
2013-11-10 01:52:00,44.3,30.0,29.98,SE,142,2.0,2.0,57,0.00,,,0.00,0,Wunderground v.1.15,2013-11-10 06:52:00,
2013-11-10 01:54:00,44.3,30.0,29.98,WSW,240,1.0,2.0,57,0.00,,,0.00,0,Wunderground v.1.15,2013-11-10 06:54:00,
2013-11-10 01:55:00,44.3,30.0,29.98,WSW,240,1.0,2.0,57,0.00,,,0.00,0,Wunderground v.1.15,2013-11-10 06:55:00,
2013-11-10 01:56:00,44.3,30.0,29.98,WSW,240,1.0,2.0,57,0.00,,,0.00,0,Wunderground v.1.15,2013-11-10 06:56:00,
2013-11-10 01:57:00,44.3,30.4,29.98,SSW,201,1.0,2.0,58,0.00,,,0.00,0,Wunderground v.1.15,2013-11-10 06:57:00,
2013-11-10 02:01:00,44.2,29.9,29.98,SE,128,1.0,2.0,57,0.00,,,0.00,0,Wunderground v.1.15,2013-11-10 07:01:00,
2013-11-10 02:02:00,44.2,29.9,29.98,SE,128,1.0,2.0,57,0.00,,,0.00,0,Wunderground v.1.15,2013-11-10 07:02:00,
2013-11-10 02:06:00,44.2,29.9,29.98,ESE,122,1.0,2.0,57,0.00,,,0.00,0,Wunderground v.1.15,2013-11-10 07:06:00,
2013-11-10 02:07:00,44.2,30.3,29.98,ESE,119,1.0,2.0,58,0.00,,,0.00,0,Wunderground v.1.15,2013-11-10 07:07:00,
2013-11-10 02:08:00,44.1,30.3,29.98,ESE,119,1.0,2.0,58,0.00,,,0.00,0,Wunderground v.1.15,2013-11-10 07:08:00,
2013-11-10 02:10:00,44.1,30.7,29.98,ESE,113,1.0,1.0,59,0.00,,,0.00,0,Wunderground v.1.15,2013-11-10 07:10:00,
2013-11-10 02:11:00,44.0,30.6,29.98,ESE,107,1.0,1.0,59,0.00,,,0.00,0,Wunderground v.1.15,2013-11-10 07:11:00,
2013-11-10 02:13:00,44.0,30.6,29.99,ESE,115,1.0,1.0,59,0.00,,,0.00,0,Wunderground v.1.15,2013-11-10 07:13:00,
2013-11-10 02:14:00,43.9,30.5,29.98,ESE,115,1.0,2.0,59,0.00,,,0.00,0,Wunderground v.1.15,2013-11-10 07:14:00,
2013-11-10 02:15:00,43.9,30.5,29.98,ESE,119,1.0,2.0,59,0.00,,,0.00,0,Wunderground v.1.15,2013-11-10 07:15:00,
2013-11-10 02:17:00,43.8,30.0,29.98,ESE,122,1.0,2.0,58,0.00,,,0.00,0,Wunderground v.1.15,2013-11-10 07:17:00,
2013-11-10 02:18:00,43.8,30.4,29.98,ESE,122,1.0,2.0,59,0.00,,,0.00,0,Wunderground v.1.15,2013-11-10 07:18:00,
2013-11-10 02:20:00,43.7,30.7,29.98,ESE,123,1.0,1.0,60,0.00,,,0.00,0,Wunderground v.1.15,2013-11-10 07:20:00,
2013-11-10 02:21:00,43.7,30.7,29.98,ESE,122,1.0,1.0,60,0.00,,,0.00,0,Wunderground v.1.15,2013-11-10 07:21:00,
2013-11-10 02:23:00,43.6,30.6,29.98,SE,134,1.0,1.0,60,0.00,,,0.00,0,Wunderground v.1.15,2013-11-10 07:23:00,
2013-11-10 02:24:00,43.5,30.9,29.98,SE,139,1.0,2.0,61,0.00,,,0.00,0,Wunderground v.1.15,2013-11-10 07:24:00,
2013-11-10 02:27:00,43.4,30.8,29.98,SE,139,1.0,2.0,61,0.00,,,0.00,0,Wunderground v.1.15,2013-11-10 07:27:00,
2013-11-10 02:28:00,43.3,30.7,29.98,SE,139,1.0,2.0,61,0.00,,,0.00,0,Wunderground v.1.15,2013-11-10 07:28:00,
2013-11-10 02:30:00,43.2,30.6,29.98,SE,139,1.0,1.0,61,0.00,,,0.00,0,Wunderground v.1.15,2013-11-10 07:30:00,
2013-11-10 02:31:00,43.1,30.6,29.98,SE,139,1.0,1.0,61,0.00,,,0.00,0,Wunderground v.1.15,2013-11-10 07:31:00,
2013-11-10 02:32:00,43.1,30.6,29.98,SE,139,1.0,1.0,61,0.00,,,0.00,0,Wunderground v.1.15,2013-11-10 07:32:00,
2013-11-10 02:35:00,43.0,30.1,29.98,ESE,111,1.0,2.0,60,0.00,,,0.00,0,Wunderground v.1.15,2013-11-10 07:35:00,
2013-11-10 02:37:00,43.1,30.6,29.98,ESE,111,0.0,2.0,61,0.00,,,0.00,0,Wunderground v.1.15,2013-11-10 07:37:00,
2013-11-10 02:38:00,43.0,30.5,29.98,ESE,111,0.0,2.0,61,0.00,,,0.00,0,Wunderground v.1.15,2013-11-10 07:38:00,
2013-11-10 02:40:00,43.1,30.6,29.98,West,270,0.0,1.0,61,0.00,,,0.00,0,Wunderground v.1.15,2013-11-10 07:40:00,
2013-11-10 02:41:00,43.1,30.6,29.98,SSW,213,1.0,1.0,61,0.00,,,0.00,0,Wunderground v.1.15,2013-11-10 07:41:00,
2013-11-10 02:42:00,43.1,30.6,29.98,SSW,213,1.0,1.0,61,0.00,,,0.00,0,Wunderground v.1.15,2013-11-10 07:42:00,
2013-11-10 02:45:00,43.1,30.6,29.98,SW,220,1.0,4.0,61,0.00,,,0.00,0,Wunderground v.1.15,2013-11-10 07:45:00,
2013-11-10 02:46:00,43.1,30.6,29.98,West,259,1.0,4.0,61,0.00,,,0.00,0,Wunderground v.1.15,2013-11-10 07:46:00,
2013-11-10 02:47:00,43.1,30.6,29.98,SSW,193,1.0,4.0,61,0.00,,,0.00,0,Wunderground v.1.15,2013-11-10 07:47:00,
2013-11-10 02:49:00,43.1,30.1,29.98,SE,132,1.0,4.0,60,0.00,,,0.00,0,Wunderground v.1.15,2013-11-10 07:49:00,
2013-11-10 02:50:00,43.2,30.2,29.98,SE,137,1.0,1.0,60,0.00,,,0.00,0,Wunderground v.1.15,2013-11-10 07:50:00,
2013-11-10 02:51:00,43.2,30.2,29.98,SE,134,1.0,1.0,60,0.00,,,0.00,0,Wunderground v.1.15,2013-11-10 07:51:00,
2013-11-10 02:53:00,43.3,30.3,29.98,East,94,1.0,1.0,60,0.00,,,0.00,0,Wunderground v.1.15,2013-11-10 07:53:00,
2013-11-10 02:55:00,43.4,30.4,29.98,ESE,123,2.0,6.0,60,0.00,,,0.00,0,Wunderground v.1.15,2013-11-10 07:55:00,
2013-11-10 02:56:00,43.4,30.4,29.98,ESE,113,2.0,6.0,60,0.00,,,0.00,0,Wunderground v.1.15,2013-11-10 07:56:00,
2013-11-10 02:58:00,43.6,30.6,29.98,SSE,147,2.0,6.0,60,0.00,,,0.00,0,Wunderground v.1.15,2013-11-10 07:58:00,
2013-11-10 02:59:00,43.6,30.6,29.98,SE,124,2.0,6.0,60,0.00,,,0.00,0,Wunderground v.1.15,2013-11-10 07:59:00,
2013-11-10 03:02:00,43.7,30.7,29.98,SE,128,3.0,3.0,60,0.00,,,0.00,0,Wunderground v.1.15,2013-11-10 08:02:00,
2013-11-10 03:04:00,43.8,30.4,29.98,ESE,115,3.0,4.0,59,0.00,,,0.00,0,Wunderground v.1.15,2013-11-10 08:04:00,
2013-11-10 03:05:00,43.8,30.8,29.98,East,98,3.0,4.0,60,0.00,,,0.00,0,Wunderground v.1.15,2013-11-10 08:05:00,
2013-11-10 03:06:00,43.8,30.8,29.98,ESE,105,3.0,4.0,60,0.00,,,0.00,0,Wunderground v.1.15,2013-11-10 08:06:00,
2013-11-10 03:09:00,43.7,30.7,29.98,ESE,105,2.0,4.0,60,0.00,,,0.00,0,Wunderground v.1.15,2013-11-10 08:09:00,
2013-11-10 03:11:00,43.7,30.7,29.98,South,181,2.0,2.0,60,0.00,,,0.00,0,Wunderground v.1.15,2013-11-10 08:11:00,
2013-11-10 03:12:00,43.6,30.6,29.98,South,182,1.0,2.0,60,0.00,,,0.00,0,Wunderground v.1.15,2013-11-10 08:12:00,
2013-11-10 03:16:00,43.5,30.5,29.98,SE,131,1.0,4.0,60,0.00,,,0.00,0,Wunderground v.1.15,2013-11-10 08:16:00,
2013-11-10 03:21:00,43.5,30.5,29.98,ESE,122,2.0,4.0,60,0.00,,,0.00,0,Wunderground v.1.15,2013-11-10 08:21:00,
2013-11-10 03:22:00,43.5,30.5,29.98,ESE,123,2.0,4.0,60,0.00,,,0.00,0,Wunderground v.1.15,2013-11-10 08:22:00,
2013-11-10 03:24:00,43.5,30.5,29.98,ESE,122,3.0,4.0,60,0.00,,,0.00,0,Wunderground v.1.15,2013-11-10 08:24:00,
2013-11-10 03:26:00,43.5,30.5,29.97,ESE,110,3.0,6.0,60,0.00,,,0.00,0,Wunderground v.1.15,2013-11-10 08:26:00,
2013-11-10 03:27:00,43.5,30.5,29.98,SSE,150,3.0,6.0,60,0.00,,,0.00,0,Wunderground v.1.15,2013-11-10 08:27:00,
2013-11-10 03:28:00,43.5,30.5,29.97,SSE,153,2.0,6.0,60,0.00,,,0.00,0,Wunderground v.1.15,2013-11-10 08:28:00,
2013-11-10 03:30:00,43.5,30.5,29.97,East,100,2.0,2.0,60,0.00,,,0.00,0,Wunderground v.1.15,2013-11-10 08:30:00,
2013-11-10 03:31:00,43.5,30.5,29.97,South,176,3.0,3.0,60,0.00,,,0.00,0,Wunderground v.1.15,2013-11-10 08:31:00,
2013-11-10 03:33:00,43.4,30.4,29.97,SE,128,2.0,3.0,60,0.00,,,0.00,0,Wunderground v.1.15,2013-11-10 08:33:00,
2013-11-10 03:35:00,43.4,30.4,29.97,ESE,123,2.0,5.0,60,0.00,,,0.00,0,Wunderground v.1.15,2013-11-10 08:35:00,
2013-11-10 03:38:00,43.4,30.4,29.97,SSE,159,2.0,5.0,60,0.00,,,0.00,0,Wunderground v.1.15,2013-11-10 08:38:00,
2013-11-10 03:39:00,43.4,30.4,29.97,SSE,159,1.0,5.0,60,0.00,,,0.00,0,Wunderground v.1.15,2013-11-10 08:39:00,
2013-11-10 03:41:00,43.4,30.4,29.97,SE,139,1.0,2.0,60,0.00,,,0.00,0,Wunderground v.1.15,2013-11-10 08:41:00,
2013-11-10 03:42:00,43.3,30.3,29.97,SE,139,1.0,2.0,60,0.00,,,0.00,0,Wunderground v.1.15,2013-11-10 08:42:00,
2013-11-10 03:44:00,43.3,30.7,29.97,SSW,204,1.0,2.0,61,0.00,,,0.00,0,Wunderground v.1.15,2013-11-10 08:44:00,
2013-11-10 03:45:00,43.3,30.7,29.97,West,279,1.0,2.0,61,0.00,,,0.00,0,Wunderground v.1.15,2013-11-10 08:45:00,
2013-11-10 03:46:00,43.2,30.6,29.97,WSW,252,1.0,2.0,61,0.00,,,0.00,0,Wunderground v.1.15,2013-11-10 08:46:00,
2013-11-10 03:49:00,43.1,30.6,29.97,WSW,248,1.0,2.0,61,0.00,,,0.00,0,Wunderground v.1.15,2013-11-10 08:49:00,
2013-11-10 03:51:00,43.0,30.5,29.97,West,266,1.0,2.0,61,0.00,,,0.00,0,Wunderground v.1.15,2013-11-10 08:51:00,
2013-11-10 03:52:00,43.0,30.5,29.97,SSW,209,1.0,2.0,61,0.00,,,0.00,0,Wunderground v.1.15,2013-11-10 08:52:00,
2013-11-10 03:54:00,42.9,30.4,29.97,West,276,2.0,3.0,61,0.00,,,0.00,0,Wunderground v.1.15,2013-11-10 08:54:00,
2013-11-10 03:55:00,42.9,30.4,29.97,WNW,298,2.0,3.0,61,0.00,,,0.00,0,Wunderground v.1.15,2013-11-10 08:55:00,
2013-11-10 03:58:00,42.8,30.7,29.97,WNW,288,2.0,3.0,62,0.00,,,0.00,0,Wunderground v.1.15,2013-11-10 08:58:00,
2013-11-10 04:00:00,42.6,30.5,29.97,WNW,286,2.0,2.0,62,0.00,,,0.00,0,Wunderground v.1.15,2013-11-10 09:00:00,
2013-11-10 04:02:00,42.6,30.5,29.97,WNW,294,2.0,5.0,62,0.00,,,0.00,0,Wunderground v.1.15,2013-11-10 09:02:00,
2013-11-10 04:03:00,42.5,30.4,29.97,WNW,300,2.0,5.0,62,0.00,,,0.00,0,Wunderground v.1.15,2013-11-10 09:03:00,
2013-11-10 04:06:00,42.4,30.3,29.97,West,265,2.0,5.0,62,0.00,,,0.00,0,Wunderground v.1.15,2013-11-10 09:06:00,
2013-11-10 04:07:00,42.4,30.3,29.97,West,269,3.0,5.0,62,0.00,,,0.00,0,Wunderground v.1.15,2013-11-10 09:07:00,
2013-11-10 04:08:00,42.3,30.6,29.97,WNW,296,2.0,5.0,63,0.00,,,0.00,0,Wunderground v.1.15,2013-11-10 09:08:00,
2013-11-10 04:10:00,42.3,30.6,29.97,West,279,2.0,4.0,63,0.00,,,0.00,0,Wunderground v.1.15,2013-11-10 09:10:00,
2013-11-10 04:12:00,42.2,30.5,29.97,West,269,2.0,4.0,63,0.00,,,0.00,0,Wunderground v.1.15,2013-11-10 09:12:00,
2013-11-10 04:14:00,42.1,30.4,29.97,West,274,2.0,4.0,63,0.00,,,0.00,0,Wunderground v.1.15,2013-11-10 09:14:00,
2013-11-10 04:16:00,42.0,30.3,29.97,West,262,2.0,4.0,63,0.00,,,0.00,0,Wunderground v.1.15,2013-11-10 09:16:00,
2013-11-10 04:17:00,42.0,30.3,29.97,West,275,2.0,4.0,63,0.00,,,0.00,0,Wunderground v.1.15,2013-11-10 09:17:00,
2013-11-10 04:19:00,41.9,30.6,29.97,WSW,253,2.0,4.0,64,0.00,,,0.00,0,Wunderground v.1.15,2013-11-10 09:19:00,
2013-11-10 04:20:00,41.9,30.2,29.97,WSW,238,2.0,2.0,63,0.00,,,0.00,0,Wunderground v.1.15,2013-11-10 09:20:00,
2013-11-10 04:21:00,41.9,30.2,29.97,SSE,167,2.0,2.0,63,0.00,,,0.00,0,Wunderground v.1.15,2013-11-10 09:21:00,
2013-11-10 04:22:00,41.8,30.1,29.97,South,190,1.0,2.0,63,0.00,,,0.00,0,Wunderground v.1.15,2013-11-10 09:22:00,
2013-11-10 04:23:00,41.8,30.1,29.97,West,281,1.0,2.0,63,0.00,,,0.00,0,Wunderground v.1.15,2013-11-10 09:23:00,
2013-11-10 04:26:00,41.7,30.4,29.97,SE,144,1.0,3.0,64,0.00,,,0.00,0,Wunderground v.1.15,2013-11-10 09:26:00,
2013-11-10 04:27:00,41.7,30.4,29.97,ESE,123,1.0,3.0,64,0.00,,,0.00,0,Wunderground v.1.15,2013-11-10 09:27:00,
2013-11-10 04:29:00,41.6,30.3,29.97,SSE,162,1.0,3.0,64,0.00,,,0.00,0,Wunderground v.1.15,2013-11-10 09:29:00,
2013-11-10 04:30:00,41.6,30.3,29.97,SSE,162,1.0,1.0,64,0.00,,,0.00,0,Wunderground v.1.15,2013-11-10 09:30:00,
2013-11-10 04:32:00,41.5,30.2,29.96,SE,144,1.0,2.0,64,0.00,,,0.00,0,Wunderground v.1.15,2013-11-10 09:32:00,
2013-11-10 04:34:00,41.4,30.1,29.96,SE,135,1.0,3.0,64,0.00,,,0.00,0,Wunderground v.1.15,2013-11-10 09:34:00,
2013-11-10 04:35:00,41.4,30.1,29.96,SE,142,1.0,3.0,64,0.00,,,0.00,0,Wunderground v.1.15,2013-11-10 09:35:00,
2013-11-10 04:37:00,41.3,30.0,29.96,ESE,117,1.0,3.0,64,0.00,,,0.00,0,Wunderground v.1.15,2013-11-10 09:37:00,
2013-11-10 04:40:00,41.3,30.0,29.96,ESE,111,1.0,1.0,64,0.00,,,0.00,0,Wunderground v.1.15,2013-11-10 09:40:00,
2013-11-10 04:41:00,41.3,30.0,29.96,SW,233,1.0,2.0,64,0.00,,,0.00,0,Wunderground v.1.15,2013-11-10 09:41:00,
2013-11-10 04:43:00,41.3,30.0,29.96,WNW,282,1.0,2.0,64,0.00,,,0.00,0,Wunderground v.1.15,2013-11-10 09:43:00,
2013-11-10 04:48:00,41.2,29.9,29.97,West,271,1.0,1.0,64,0.00,,,0.00,0,Wunderground v.1.15,2013-11-10 09:48:00,
2013-11-10 04:51:00,41.1,29.8,29.97,WNW,296,1.0,3.0,64,0.00,,,0.00,0,Wunderground v.1.15,2013-11-10 09:51:00,
2013-11-10 04:52:00,41.1,30.2,29.97,WNW,294,1.0,3.0,65,0.00,,,0.00,0,Wunderground v.1.15,2013-11-10 09:52:00,
2013-11-10 04:55:00,41.1,30.2,29.97,WNW,297,1.0,3.0,65,0.00,,,0.00,0,Wunderground v.1.15,2013-11-10 09:55:00,
2013-11-10 04:57:00,41.0,30.1,29.97,WNW,285,2.0,3.0,65,0.00,,,0.00,0,Wunderground v.1.15,2013-11-10 09:57:00,
2013-11-10 04:58:00,41.0,30.1,29.97,WNW,292,1.0,1.0,65,0.00,,,0.00,0,Wunderground v.1.15,2013-11-10 09:58:00,
2013-11-10 05:02:00,41.0,30.1,29.97,West,281,1.0,4.0,65,0.00,,,0.00,0,Wunderground v.1.15,2013-11-10 10:02:00,
2013-11-10 05:03:00,41.0,30.1,29.97,West,275,1.0,4.0,65,0.00,,,0.00,0,Wunderground v.1.15,2013-11-10 10:03:00,
2013-11-10 05:04:00,41.0,30.1,29.97,West,275,1.0,4.0,65,0.00,,,0.00,0,Wunderground v.1.15,2013-11-10 10:04:00,
2013-11-10 05:05:00,41.0,30.1,29.97,West,275,1.0,4.0,65,0.00,,,0.00,0,Wunderground v.1.15,2013-11-10 10:05:00,
2013-11-10 05:06:00,41.0,30.1,29.97,West,274,1.0,4.0,65,0.00,,,0.00,0,Wunderground v.1.15,2013-11-10 10:06:00,
2013-11-10 05:09:00,41.0,29.7,29.97,SE,140,2.0,2.0,64,0.00,,,0.00,0,Wunderground v.1.15,2013-11-10 10:09:00,
2013-11-10 05:10:00,41.0,29.7,29.97,SE,138,2.0,2.0,64,0.00,,,0.00,0,Wunderground v.1.15,2013-11-10 10:10:00,
2013-11-10 05:11:00,41.1,29.8,29.97,SE,127,2.0,4.0,64,0.00,,,0.00,0,Wunderground v.1.15,2013-11-10 10:11:00,
2013-11-10 05:12:00,41.1,29.8,29.97,ESE,121,2.0,4.0,64,0.00,,,0.00,0,Wunderground v.1.15,2013-11-10 10:12:00,
2013-11-10 05:16:00,41.0,29.7,29.97,WNW,291,3.0,4.0,64,0.00,,,0.00,0,Wunderground v.1.15,2013-11-10 10:16:00,
2013-11-10 05:18:00,41.0,30.1,29.97,WNW,286,2.0,4.0,65,0.00,,,0.00,0,Wunderground v.1.15,2013-11-10 10:18:00,
2013-11-10 05:19:00,41.0,30.1,29.97,WNW,286,2.0,4.0,65,0.00,,,0.00,0,Wunderground v.1.15,2013-11-10 10:19:00,
2013-11-10 05:21:00,40.9,30.0,29.97,WNW,286,2.0,2.0,65,0.00,,,0.00,0,Wunderground v.1.15,2013-11-10 10:21:00,
2013-11-10 05:22:00,40.9,30.0,29.97,WNW,302,2.0,2.0,65,0.00,,,0.00,0,Wunderground v.1.15,2013-11-10 10:22:00,
2013-11-10 05:23:00,40.8,29.9,29.97,WNW,300,1.0,2.0,65,0.00,,,0.00,0,Wunderground v.1.15,2013-11-10 10:23:00,
2013-11-10 05:25:00,40.7,29.8,29.97,NW,304,1.0,2.0,65,0.00,,,0.00,0,Wunderground v.1.15,2013-11-10 10:25:00,
2013-11-10 05:28:00,40.7,29.8,29.97,NW,308,1.0,3.0,65,0.00,,,0.00,0,Wunderground v.1.15,2013-11-10 10:28:00,
2013-11-10 05:29:00,40.7,29.8,29.97,WNW,302,1.0,3.0,65,0.00,,,0.00,0,Wunderground v.1.15,2013-11-10 10:29:00,
2013-11-10 05:31:00,40.7,29.8,29.97,WNW,297,1.0,1.0,65,0.00,,,0.00,0,Wunderground v.1.15,2013-11-10 10:31:00,
2013-11-10 05:33:00,40.7,29.8,29.97,WNW,297,1.0,2.0,65,0.00,,,0.00,0,Wunderground v.1.15,2013-11-10 10:33:00,
2013-11-10 05:36:00,40.7,29.8,29.97,WNW,296,1.0,4.0,65,0.00,,,0.00,0,Wunderground v.1.15,2013-11-10 10:36:00,
2013-11-10 05:38:00,40.7,29.8,29.97,WNW,296,1.0,4.0,65,0.00,,,0.00,0,Wunderground v.1.15,2013-11-10 10:38:00,
2013-11-10 05:39:00,40.7,29.8,29.97,WNW,296,1.0,4.0,65,0.00,,,0.00,0,Wunderground v.1.15,2013-11-10 10:39:00,
2013-11-10 05:40:00,40.7,29.8,29.97,WNW,296,1.0,1.0,65,0.00,,,0.00,0,Wunderground v.1.15,2013-11-10 10:40:00,
2013-11-10 05:41:00,40.7,29.8,29.97,WNW,296,1.0,1.0,65,0.00,,,0.00,0,Wunderground v.1.15,2013-11-10 10:41:00,
2013-11-10 05:44:00,40.7,29.8,29.97,NNW,344,1.0,2.0,65,0.00,,,0.00,0,Wunderground v.1.15,2013-11-10 10:44:00,
2013-11-10 05:46:00,40.7,29.8,29.97,NNW,344,1.0,2.0,65,0.00,,,0.00,0,Wunderground v.1.15,2013-11-10 10:46:00,
2013-11-10 05:48:00,40.6,29.7,29.97,East,94,0.0,2.0,65,0.00,,,0.00,0,Wunderground v.1.15,2013-11-10 10:48:00,
2013-11-10 05:49:00,40.7,29.8,29.97,East,94,0.0,2.0,65,0.00,,,0.00,0,Wunderground v.1.15,2013-11-10 10:49:00,
2013-11-10 05:51:00,40.7,29.8,29.97,East,96,1.0,1.0,65,0.00,,,0.00,0,Wunderground v.1.15,2013-11-10 10:51:00,
2013-11-10 05:52:00,40.7,29.8,29.97,East,96,1.0,1.0,65,0.00,,,0.00,0,Wunderground v.1.15,2013-11-10 10:52:00,
2013-11-10 05:53:00,40.7,29.8,29.97,East,96,1.0,1.0,65,0.00,,,0.00,0,Wunderground v.1.15,2013-11-10 10:53:00,
2013-11-10 05:54:00,40.7,29.8,29.97,ESE,109,0.0,2.0,65,0.00,,,0.00,0,Wunderground v.1.15,2013-11-10 10:54:00,
2013-11-10 05:56:00,40.8,29.9,29.97,ESE,120,1.0,2.0,65,0.00,,,0.00,0,Wunderground v.1.15,2013-11-10 10:56:00,
2013-11-10 05:58:00,40.9,30.0,29.97,SE,136,1.0,2.0,65,0.00,,,0.00,0,Wunderground v.1.15,2013-11-10 10:58:00,
2013-11-10 05:59:00,40.9,30.0,29.97,SE,134,1.0,2.0,65,0.00,,,0.00,0,Wunderground v.1.15,2013-11-10 10:59:00,
2013-11-10 06:00:00,40.9,30.0,29.96,SE,124,1.0,4.0,65,0.00,,,0.00,0,Wunderground v.1.15,2013-11-10 11:00:00,
2013-11-10 06:02:00,41.0,30.1,29.96,ESE,119,1.0,4.0,65,0.00,,,0.00,0,Wunderground v.1.15,2013-11-10 11:02:00,
2013-11-10 06:04:00,41.3,29.6,29.96,South,178,2.0,5.0,63,0.00,,,0.00,0,Wunderground v.1.15,2013-11-10 11:04:00,
2013-11-10 06:06:00,41.6,29.9,29.96,ESE,119,2.0,7.0,63,0.00,,,0.00,0,Wunderground v.1.15,2013-11-10 11:06:00,
2013-11-10 06:11:00,42.1,30.0,29.96,SE,141,4.0,5.0,62,0.00,,,0.00,0,Wunderground v.1.15,2013-11-10 11:11:00,
2013-11-10 06:13:00,42.2,30.1,29.96,SE,144,4.0,5.0,62,0.00,,,0.00,0,Wunderground v.1.15,2013-11-10 11:13:00,
2013-11-10 06:14:00,42.2,30.1,29.96,SE,144,4.0,5.0,62,0.00,,,0.00,0,Wunderground v.1.15,2013-11-10 11:14:00,
2013-11-10 06:16:00,42.2,30.1,29.96,SE,128,3.0,5.0,62,0.00,,,0.00,0,Wunderground v.1.15,2013-11-10 11:16:00,
2013-11-10 06:22:00,42.0,30.3,29.96,ENE,65,1.0,2.0,63,0.00,,,0.00,0,Wunderground v.1.15,2013-11-10 11:22:00,
2013-11-10 06:23:00,41.9,30.2,29.96,NE,41,1.0,2.0,63,0.00,,,0.00,0,Wunderground v.1.15,2013-11-10 11:23:00,
2013-11-10 06:24:00,41.8,30.1,29.97,WNW,300,1.0,2.0,63,0.00,,,0.00,0,Wunderground v.1.15,2013-11-10 11:24:00,
2013-11-10 06:28:00,41.4,29.7,29.97,WNW,294,1.0,2.0,63,0.00,,,0.00,0,Wunderground v.1.15,2013-11-10 11:28:00,
2013-11-10 06:29:00,41.4,30.1,29.97,WNW,300,1.0,2.0,64,0.00,,,0.00,0,Wunderground v.1.15,2013-11-10 11:29:00,
2013-11-10 06:32:00,41.2,29.9,29.97,WNW,300,1.0,1.0,64,0.00,,,0.00,0,Wunderground v.1.15,2013-11-10 11:32:00,
2013-11-10 06:33:00,41.2,29.9,29.97,WNW,290,1.0,1.0,64,0.00,,,0.00,0,Wunderground v.1.15,2013-11-10 11:33:00,
2013-11-10 06:34:00,41.2,29.9,29.97,WNW,290,1.0,1.0,64,0.00,,,0.00,0,Wunderground v.1.15,2013-11-10 11:34:00,
2013-11-10 06:38:00,41.1,29.8,29.97,ESE,120,1.0,4.0,64,0.00,,,0.00,0,Wunderground v.1.15,2013-11-10 11:38:00,
2013-11-10 06:39:00,41.1,29.8,29.97,ESE,120,1.0,4.0,64,0.00,,,0.00,0,Wunderground v.1.15,2013-11-10 11:39:00,
2013-11-10 06:40:00,41.1,29.8,29.97,NW,309,1.0,3.0,64,0.00,,,0.00,0,Wunderground v.1.15,2013-11-10 11:40:00,
2013-11-10 06:42:00,41.1,29.8,29.97,NNW,343,1.0,3.0,64,0.00,,,0.00,0,Wunderground v.1.15,2013-11-10 11:42:00,
2013-11-10 06:43:00,41.1,29.8,29.97,NNE,33,1.0,3.0,64,0.00,,,0.00,0,Wunderground v.1.15,2013-11-10 11:43:00,
2013-11-10 06:45:00,41.1,29.8,29.97,WNW,290,1.0,4.0,64,0.00,,,0.00,0,Wunderground v.1.15,2013-11-10 11:45:00,
2013-11-10 06:46:00,41.1,29.8,29.97,West,280,1.0,4.0,64,0.00,,,0.00,0,Wunderground v.1.15,2013-11-10 11:46:00,
2013-11-10 06:47:00,41.2,29.9,29.97,West,280,1.0,4.0,64,0.00,,,0.00,5,Wunderground v.1.15,2013-11-10 11:47:00,
2013-11-10 06:52:00,41.1,30.2,29.97,West,272,1.0,1.0,65,0.00,,,0.00,5,Wunderground v.1.15,2013-11-10 11:52:00,
2013-11-10 06:54:00,41.0,30.1,29.97,WNW,289,1.0,4.0,65,0.00,,,0.00,7,Wunderground v.1.15,2013-11-10 11:54:00,
2013-11-10 06:55:00,41.0,30.1,29.97,WNW,289,1.0,4.0,65,0.00,,,0.00,7,Wunderground v.1.15,2013-11-10 11:55:00,
2013-11-10 06:56:00,41.0,30.1,29.97,West,273,1.0,4.0,65,0.00,,,0.00,9,Wunderground v.1.15,2013-11-10 11:56:00,
2013-11-10 06:59:00,41.0,30.1,29.97,NW,311,1.0,4.0,65,0.00,,,0.00,11,Wunderground v.1.15,2013-11-10 11:59:00,
2013-11-10 07:00:00,41.1,30.2,29.97,WNW,297,1.0,1.0,65,0.00,,,0.00,11,Wunderground v.1.15,2013-11-10 12:00:00,
2013-11-10 07:01:00,41.1,30.2,29.97,WNW,297,1.0,1.0,65,0.00,,,0.00,11,Wunderground v.1.15,2013-11-10 12:01:00,
2013-11-10 07:03:00,41.2,30.3,29.97,WNW,290,2.0,2.0,65,0.00,,,0.00,12,Wunderground v.1.15,2013-11-10 12:03:00,
2013-11-10 07:06:00,41.4,30.5,29.97,SW,232,1.0,2.0,65,0.00,,,0.00,14,Wunderground v.1.15,2013-11-10 12:06:00,
2013-11-10 07:12:00,41.5,30.6,29.97,WSW,242,1.0,1.0,65,0.00,,,0.00,16,Wunderground v.1.15,2013-11-10 12:12:00,
2013-11-10 07:13:00,41.5,30.6,29.97,West,277,1.0,3.0,65,0.00,,,0.00,16,Wunderground v.1.15,2013-11-10 12:13:00,
2013-11-10 07:14:00,41.5,30.6,29.97,WSW,248,1.0,3.0,65,0.00,,,0.00,16,Wunderground v.1.15,2013-11-10 12:14:00,
2013-11-10 07:17:00,41.5,30.6,29.97,NW,307,1.0,3.0,65,0.00,,,0.00,18,Wunderground v.1.15,2013-11-10 12:17:00,
2013-11-10 07:18:00,41.5,30.6,29.97,WNW,302,1.0,3.0,65,0.00,,,0.00,19,Wunderground v.1.15,2013-11-10 12:18:00,
2013-11-10 07:21:00,41.6,30.7,29.97,NNW,335,1.0,2.0,65,0.00,,,0.00,19,Wunderground v.1.15,2013-11-10 12:21:00,
2013-11-10 07:24:00,41.6,30.7,29.97,WNW,285,1.0,2.0,65,0.00,,,0.00,21,Wunderground v.1.15,2013-11-10 12:24:00,
2013-11-10 07:25:00,41.6,30.7,29.97,WNW,288,1.0,2.0,65,0.00,,,0.00,23,Wunderground v.1.15,2013-11-10 12:25:00,
2013-11-10 07:26:00,41.6,31.1,29.97,WNW,302,1.0,2.0,66,0.00,,,0.00,23,Wunderground v.1.15,2013-11-10 12:26:00,
2013-11-10 07:27:00,41.6,31.1,29.97,NNW,331,1.0,2.0,66,0.00,,,0.00,23,Wunderground v.1.15,2013-11-10 12:27:00,
2013-11-10 07:29:00,41.6,31.1,29.97,WNW,286,1.0,2.0,66,0.00,,,0.00,25,Wunderground v.1.15,2013-11-10 12:29:00,
2013-11-10 07:31:00,41.6,31.1,29.97,NW,306,1.0,3.0,66,0.00,,,0.00,25,Wunderground v.1.15,2013-11-10 12:31:00,
2013-11-10 07:32:00,41.6,31.1,29.97,WNW,294,1.0,3.0,66,0.00,,,0.00,25,Wunderground v.1.15,2013-11-10 12:32:00,
2013-11-10 07:33:00,41.7,31.2,29.97,North,5,1.0,3.0,66,0.00,,,0.00,25,Wunderground v.1.15,2013-11-10 12:33:00,
2013-11-10 07:37:00,41.9,31.4,29.97,WNW,290,2.0,3.0,66,0.00,,,0.00,26,Wunderground v.1.15,2013-11-10 12:37:00,
2013-11-10 07:38:00,42.0,31.5,29.97,West,279,2.0,3.0,66,0.00,,,0.00,28,Wunderground v.1.15,2013-11-10 12:38:00,
2013-11-10 07:40:00,42.1,31.6,29.97,West,281,2.0,2.0,66,0.00,,,0.00,32,Wunderground v.1.15,2013-11-10 12:40:00,
2013-11-10 07:41:00,42.2,31.6,29.97,WNW,286,2.0,2.0,66,0.00,,,0.00,30,Wunderground v.1.15,2013-11-10 12:41:00,
2013-11-10 07:42:00,42.2,31.6,29.97,West,272,2.0,2.0,66,0.00,,,0.00,30,Wunderground v.1.15,2013-11-10 12:42:00,
2013-11-10 07:44:00,42.3,31.7,29.97,WNW,288,2.0,4.0,66,0.00,,,0.00,35,Wunderground v.1.15,2013-11-10 12:44:00,
2013-11-10 07:47:00,42.4,31.8,29.97,West,263,2.0,4.0,66,0.00,,,0.00,44,Wunderground v.1.15,2013-11-10 12:47:00,
2013-11-10 07:48:00,42.4,31.8,29.97,WNW,288,2.0,4.0,66,0.00,,,0.00,39,Wunderground v.1.15,2013-11-10 12:48:00,
2013-11-10 07:49:00,42.5,31.9,29.97,West,272,2.0,4.0,66,0.00,,,0.00,35,Wunderground v.1.15,2013-11-10 12:49:00,
2013-11-10 07:51:00,42.7,32.1,29.97,SSW,211,3.0,4.0,66,0.00,,,0.00,42,Wunderground v.1.15,2013-11-10 12:51:00,
2013-11-10 07:53:00,42.8,32.2,29.97,West,275,3.0,4.0,66,0.00,,,0.00,44,Wunderground v.1.15,2013-11-10 12:53:00,
2013-11-10 07:55:00,42.9,32.3,29.98,SE,138,3.0,4.0,66,0.00,,,0.00,39,Wunderground v.1.15,2013-11-10 12:55:00,
2013-11-10 07:57:00,43.1,32.5,29.97,West,279,2.0,4.0,66,0.00,,,0.00,35,Wunderground v.1.15,2013-11-10 12:57:00,
2013-11-10 07:59:00,43.3,32.7,29.98,West,259,2.0,4.0,66,0.00,,,0.00,35,Wunderground v.1.15,2013-11-10 12:59:00,
2013-11-10 08:00:00,43.4,32.8,29.97,West,262,2.0,2.0,66,0.00,,,0.00,37,Wunderground v.1.15,2013-11-10 13:00:00,
2013-11-10 08:03:00,43.6,32.6,29.98,West,273,2.0,5.0,65,0.00,,,0.00,39,Wunderground v.1.15,2013-11-10 13:03:00,
2013-11-10 08:06:00,43.8,32.8,29.97,WNW,293,2.0,6.0,65,0.00,,,0.00,39,Wunderground v.1.15,2013-11-10 13:06:00,
2013-11-10 08:07:00,44.0,33.0,29.97,SSE,156,3.0,6.0,65,0.00,,,0.00,39,Wunderground v.1.15,2013-11-10 13:07:00,
2013-11-10 08:08:00,44.0,33.0,29.97,WNW,289,3.0,6.0,65,0.00,,,0.00,39,Wunderground v.1.15,2013-11-10 13:08:00,
2013-11-10 08:11:00,44.3,33.3,29.97,WSW,249,3.0,4.0,65,0.00,,,0.00,141,Wunderground v.1.15,2013-11-10 13:11:00,
2013-11-10 08:13:00,44.5,33.5,29.97,West,277,2.0,4.0,65,0.00,,,0.00,163,Wunderground v.1.15,2013-11-10 13:13:00,
2013-11-10 08:15:00,44.8,33.7,29.97,SW,235,2.0,4.0,65,0.00,,,0.00,171,Wunderground v.1.15,2013-11-10 13:15:00,
2013-11-10 08:19:00,45.4,34.3,29.97,SE,128,2.0,6.0,65,0.00,,,0.00,183,Wunderground v.1.15,2013-11-10 13:19:00,
2013-11-10 08:20:00,45.6,34.1,29.97,WNW,286,2.0,2.0,64,0.00,,,0.00,185,Wunderground v.1.15,2013-11-10 13:20:00,
2013-11-10 08:21:00,45.7,34.6,29.97,SE,130,2.0,4.0,65,0.00,,,0.00,185,Wunderground v.1.15,2013-11-10 13:21:00,
2013-11-10 08:23:00,46.1,34.6,29.98,SE,140,2.0,4.0,64,0.00,,,0.00,193,Wunderground v.1.15,2013-11-10 13:23:00,
2013-11-10 08:25:00,46.5,34.6,29.98,WSW,251,2.0,4.0,63,0.00,,,0.00,197,Wunderground v.1.15,2013-11-10 13:25:00,
2013-11-10 08:27:00,46.8,34.9,29.98,ESE,103,2.0,4.0,63,0.00,,,0.00,202,Wunderground v.1.15,2013-11-10 13:27:00,
2013-11-10 08:29:00,47.2,34.8,29.97,ESE,113,3.0,5.0,62,0.00,,,0.00,211,Wunderground v.1.15,2013-11-10 13:29:00,
2013-11-10 08:30:00,47.3,34.9,29.97,ESE,109,3.0,3.0,62,0.00,,,0.00,214,Wunderground v.1.15,2013-11-10 13:30:00,
2013-11-10 08:31:00,47.5,35.1,29.97,ESE,102,3.0,4.0,62,0.00,,,0.00,216,Wunderground v.1.15,2013-11-10 13:31:00,
2013-11-10 08:35:00,48.0,35.2,29.97,SSW,204,3.0,7.0,61,0.00,,,0.00,230,Wunderground v.1.15,2013-11-10 13:35:00,
2013-11-10 08:37:00,48.3,35.5,29.97,NW,309,3.0,7.0,61,0.00,,,0.00,232,Wunderground v.1.15,2013-11-10 13:37:00,
2013-11-10 08:39:00,48.5,35.7,29.97,SE,127,3.0,7.0,61,0.00,,,0.00,239,Wunderground v.1.15,2013-11-10 13:39:00,
2013-11-10 08:41:00,48.7,35.8,29.97,ESE,121,3.0,6.0,61,0.00,,,0.00,246,Wunderground v.1.15,2013-11-10 13:41:00,
2013-11-10 08:44:00,49.0,35.7,29.97,SE,134,3.0,6.0,60,0.00,,,0.00,253,Wunderground v.1.15,2013-11-10 13:44:00,
2013-11-10 08:45:00,49.0,35.7,29.97,ESE,121,3.0,6.0,60,0.00,,,0.00,253,Wunderground v.1.15,2013-11-10 13:45:00,
2013-11-10 08:46:00,49.1,35.8,29.97,WSW,250,3.0,6.0,60,0.00,,,0.00,257,Wunderground v.1.15,2013-11-10 13:46:00,
2013-11-10 08:47:00,49.2,35.9,29.97,SE,124,3.0,6.0,60,0.00,,,0.00,260,Wunderground v.1.15,2013-11-10 13:47:00,
2013-11-10 08:51:00,49.5,36.2,29.97,East,95,4.0,5.0,60,0.00,,,0.00,262,Wunderground v.1.15,2013-11-10 13:51:00,
2013-11-10 08:52:00,49.7,36.4,29.97,SE,124,4.0,5.0,60,0.00,,,0.00,260,Wunderground v.1.15,2013-11-10 13:52:00,
2013-11-10 08:53:00,49.8,36.0,29.97,ESE,118,4.0,5.0,59,0.00,,,0.00,269,Wunderground v.1.15,2013-11-10 13:53:00,
2013-11-10 08:54:00,49.9,36.1,29.97,East,98,4.0,5.0,59,0.00,,,0.00,267,Wunderground v.1.15,2013-11-10 13:54:00,
2013-11-10 08:55:00,50.0,36.2,29.97,SE,140,4.0,5.0,59,0.00,,,0.00,276,Wunderground v.1.15,2013-11-10 13:55:00,
2013-11-10 08:59:00,50.4,36.6,29.97,SW,235,4.0,5.0,59,0.00,,,0.00,290,Wunderground v.1.15,2013-11-10 13:59:00,
2013-11-10 09:02:00,50.7,36.5,29.97,South,188,5.0,5.0,58,0.00,,,0.00,316,Wunderground v.1.15,2013-11-10 14:02:00,
2013-11-10 09:03:00,50.9,36.6,29.97,North,5,5.0,5.0,58,0.00,,,0.00,366,Wunderground v.1.15,2013-11-10 14:03:00,
2013-11-10 09:04:00,51.0,36.7,29.97,West,264,4.0,5.0,58,0.00,,,0.00,381,Wunderground v.1.15,2013-11-10 14:04:00,
2013-11-10 09:06:00,51.3,37.0,29.97,SE,138,5.0,6.0,58,0.00,,,0.00,401,Wunderground v.1.15,2013-11-10 14:06:00,
2013-11-10 09:08:00,51.6,36.4,29.97,West,273,5.0,10.0,56,0.00,,,0.00,373,Wunderground v.1.15,2013-11-10 14:08:00,
2013-11-10 09:09:00,51.6,36.4,29.97,South,177,5.0,10.0,56,0.00,,,0.00,373,Wunderground v.1.15,2013-11-10 14:09:00,
2013-11-10 09:10:00,51.7,36.5,29.97,WSW,255,5.0,10.0,56,0.00,,,0.00,142,Wunderground v.1.15,2013-11-10 14:10:00,
2013-11-10 09:12:00,51.7,36.5,29.96,SE,145,5.0,5.0,56,0.00,,,0.00,142,Wunderground v.1.15,2013-11-10 14:12:00,
2013-11-10 09:17:00,51.7,36.5,29.96,West,271,6.0,9.0,56,0.00,,,0.00,153,Wunderground v.1.15,2013-11-10 14:17:00,
2013-11-10 09:19:00,51.8,36.6,29.96,WSW,238,6.0,9.0,56,0.00,,,0.00,439,Wunderground v.1.15,2013-11-10 14:19:00,
2013-11-10 09:20:00,51.9,36.7,29.96,NW,307,6.0,9.0,56,0.00,,,0.00,415,Wunderground v.1.15,2013-11-10 14:20:00,
2013-11-10 09:22:00,52.1,36.4,29.96,SE,138,6.0,11.0,55,0.00,,,0.00,390,Wunderground v.1.15,2013-11-10 14:22:00,
2013-11-10 09:24:00,52.2,36.5,29.96,WSW,252,5.0,11.0,55,0.00,,,0.00,376,Wunderground v.1.15,2013-11-10 14:24:00,
2013-11-10 09:26:00,52.3,36.6,29.96,ESE,113,6.0,11.0,55,0.00,,,0.00,371,Wunderground v.1.15,2013-11-10 14:26:00,
2013-11-10 09:28:00,52.3,36.6,29.95,West,268,6.0,11.0,55,0.00,,,0.00,323,Wunderground v.1.15,2013-11-10 14:28:00,
2013-11-10 09:29:00,52.3,36.6,29.96,WSW,250,6.0,11.0,55,0.00,,,0.00,387,Wunderground v.1.15,2013-11-10 14:29:00,
2013-11-10 09:31:00,52.2,36.5,29.95,SSW,210,6.0,8.0,55,0.00,,,0.00,390,Wunderground v.1.15,2013-11-10 14:31:00,
2013-11-10 09:34:00,52.2,36.5,29.95,West,266,6.0,8.0,55,0.00,,,0.00,374,Wunderground v.1.15,2013-11-10 14:34:00,
2013-11-10 09:35:00,52.2,37.0,29.96,SE,134,6.0,8.0,56,0.00,,,0.00,376,Wunderground v.1.15,2013-11-10 14:35:00,
2013-11-10 09:36:00,52.3,37.1,29.96,West,269,6.0,8.0,56,0.00,,,0.00,381,Wunderground v.1.15,2013-11-10 14:36:00,
2013-11-10 09:37:00,52.3,37.1,29.96,WNW,290,6.0,8.0,56,0.00,,,0.00,383,Wunderground v.1.15,2013-11-10 14:37:00,
2013-11-10 09:40:00,52.5,36.8,29.95,SE,138,5.0,9.0,55,0.00,,,0.00,373,Wunderground v.1.15,2013-11-10 14:40:00,
2013-11-10 09:41:00,52.5,36.8,29.95,ESE,107,5.0,5.0,55,0.00,,,0.00,373,Wunderground v.1.15,2013-11-10 14:41:00,
2013-11-10 09:43:00,52.5,37.2,29.95,ESE,120,4.0,5.0,56,0.00,,,0.00,162,Wunderground v.1.15,2013-11-10 14:43:00,
2013-11-10 09:46:00,52.5,36.8,29.95,SE,138,5.0,5.0,55,0.00,,,0.00,325,Wunderground v.1.15,2013-11-10 14:46:00,
2013-11-10 09:47:00,52.4,36.7,29.95,ESE,109,5.0,6.0,55,0.00,,,0.00,325,Wunderground v.1.15,2013-11-10 14:47:00,
2013-11-10 09:48:00,52.3,36.6,29.95,West,270,5.0,6.0,55,0.00,,,0.00,93,Wunderground v.1.15,2013-11-10 14:48:00,
2013-11-10 09:50:00,52.3,37.1,29.96,SE,133,5.0,6.0,56,0.00,,,0.00,93,Wunderground v.1.15,2013-11-10 14:50:00,
2013-11-10 09:52:00,52.3,37.1,29.96,West,266,4.0,6.0,56,0.00,,,0.00,464,Wunderground v.1.15,2013-11-10 14:52:00,
2013-11-10 09:56:00,52.5,37.2,29.96,SSE,161,5.0,6.0,56,0.00,,,0.00,443,Wunderground v.1.15,2013-11-10 14:56:00,
2013-11-10 09:57:00,52.5,37.2,29.96,West,269,4.0,6.0,56,0.00,,,0.00,443,Wunderground v.1.15,2013-11-10 14:57:00,
2013-11-10 09:58:00,52.6,36.9,29.96,WNW,284,4.0,6.0,55,0.00,,,0.00,128,Wunderground v.1.15,2013-11-10 14:58:00,
2013-11-10 10:01:00,52.6,36.9,29.96,West,269,4.0,4.0,55,0.00,,,0.00,142,Wunderground v.1.15,2013-11-10 15:01:00,
2013-11-10 10:02:00,52.6,36.9,29.96,SE,134,4.0,4.0,55,0.00,,,0.00,144,Wunderground v.1.15,2013-11-10 15:02:00,
2013-11-10 10:05:00,52.5,36.3,29.96,East,93,4.0,7.0,54,0.00,,,0.00,102,Wunderground v.1.15,2013-11-10 15:05:00,
2013-11-10 10:08:00,52.4,36.2,29.96,WSW,258,5.0,7.0,54,0.00,,,0.00,113,Wunderground v.1.15,2013-11-10 15:08:00,
2013-11-10 10:10:00,52.4,36.2,29.96,West,269,5.0,5.0,54,0.00,,,0.00,109,Wunderground v.1.15,2013-11-10 15:10:00,
2013-11-10 10:11:00,52.4,36.2,29.96,West,265,5.0,6.0,54,0.00,,,0.00,97,Wunderground v.1.15,2013-11-10 15:11:00,
2013-11-10 10:12:00,52.4,36.2,29.96,WSW,254,5.0,6.0,54,0.00,,,0.00,86,Wunderground v.1.15,2013-11-10 15:12:00,
2013-11-10 10:18:00,52.4,36.2,29.96,West,262,5.0,6.0,54,0.00,,,0.00,95,Wunderground v.1.15,2013-11-10 15:18:00,
2013-11-10 10:19:00,52.4,35.8,29.96,West,270,4.0,6.0,53,0.00,,,0.00,98,Wunderground v.1.15,2013-11-10 15:19:00,
2013-11-10 10:21:00,52.4,35.8,29.96,WSW,254,4.0,6.0,53,0.00,,,0.00,111,Wunderground v.1.15,2013-11-10 15:21:00,
2013-11-10 10:22:00,52.4,35.3,29.96,WNW,292,5.0,6.0,52,0.00,,,0.00,114,Wunderground v.1.15,2013-11-10 15:22:00,
2013-11-10 10:28:00,52.4,35.8,29.96,West,271,5.0,8.0,53,0.00,,,0.00,141,Wunderground v.1.15,2013-11-10 15:28:00,
2013-11-10 10:29:00,52.4,35.3,29.97,WNW,291,5.0,9.0,52,0.00,,,0.00,139,Wunderground v.1.15,2013-11-10 15:29:00,
2013-11-10 10:30:00,52.4,35.3,29.97,West,279,6.0,9.0,52,0.00,,,0.00,130,Wunderground v.1.15,2013-11-10 15:30:00,
2013-11-10 10:33:00,52.4,35.3,29.97,WSW,250,6.0,9.0,52,0.00,,,0.00,111,Wunderground v.1.15,2013-11-10 15:33:00,
2013-11-10 10:35:00,52.4,34.8,29.97,West,281,6.0,9.0,51,0.00,,,0.00,102,Wunderground v.1.15,2013-11-10 15:35:00,
2013-11-10 10:36:00,52.4,34.3,29.96,West,280,6.0,13.0,50,0.00,,,0.00,105,Wunderground v.1.15,2013-11-10 15:36:00,
2013-11-10 10:40:00,52.2,33.6,29.96,NW,316,8.0,8.0,49,0.00,,,0.00,142,Wunderground v.1.15,2013-11-10 15:40:00,
2013-11-10 10:41:00,52.2,33.6,29.97,West,273,7.0,16.0,49,0.00,,,0.00,134,Wunderground v.1.15,2013-11-10 15:41:00,
2013-11-10 10:42:00,52.2,33.6,29.96,West,265,8.0,16.0,49,0.00,,,0.00,127,Wunderground v.1.15,2013-11-10 15:42:00,
2013-11-10 10:44:00,52.2,33.6,29.96,WNW,285,9.0,16.0,49,0.00,,,0.00,118,Wunderground v.1.15,2013-11-10 15:44:00,
2013-11-10 10:46:00,52.1,33.5,29.96,WNW,294,9.0,16.0,49,0.00,,,0.00,104,Wunderground v.1.15,2013-11-10 15:46:00,
2013-11-10 10:47:00,52.1,33.5,29.96,WNW,285,8.0,16.0,49,0.00,,,0.00,83,Wunderground v.1.15,2013-11-10 15:47:00,
2013-11-10 10:49:00,52.1,33.5,29.97,West,276,8.0,16.0,49,0.00,,,0.00,83,Wunderground v.1.15,2013-11-10 15:49:00,
2013-11-10 10:50:00,52.1,33.0,29.97,West,272,8.0,8.0,48,0.00,,,0.00,84,Wunderground v.1.15,2013-11-10 15:50:00,
2013-11-10 10:53:00,52.0,32.9,29.97,WSW,254,7.0,13.0,48,0.00,,,0.00,83,Wunderground v.1.15,2013-11-10 15:53:00,
2013-11-10 10:55:00,51.9,32.8,29.96,NNW,329,7.0,13.0,48,0.00,,,0.00,88,Wunderground v.1.15,2013-11-10 15:55:00,
2013-11-10 10:57:00,51.9,32.8,29.97,West,279,8.0,13.0,48,0.00,,,0.00,83,Wunderground v.1.15,2013-11-10 15:57:00,
2013-11-10 11:00:00,51.9,32.3,29.96,West,279,8.0,8.0,47,0.00,,,0.00,81,Wunderground v.1.15,2013-11-10 16:00:00,
2013-11-10 11:01:00,51.9,32.3,29.96,West,271,8.0,8.0,47,0.00,,,0.00,81,Wunderground v.1.15,2013-11-10 16:01:00,
2013-11-10 11:02:00,51.9,32.8,29.96,West,273,8.0,8.0,48,0.00,,,0.00,81,Wunderground v.1.15,2013-11-10 16:02:00,
2013-11-10 11:03:00,51.9,32.8,29.96,West,281,7.0,8.0,48,0.00,,,0.00,83,Wunderground v.1.15,2013-11-10 16:03:00,
2013-11-10 11:05:00,51.9,32.8,29.96,NW,315,7.0,8.0,48,0.00,,,0.00,86,Wunderground v.1.15,2013-11-10 16:05:00,
2013-11-10 11:07:00,51.9,32.8,29.96,WNW,288,6.0,8.0,48,0.00,,,0.00,86,Wunderground v.1.15,2013-11-10 16:07:00,
2013-11-10 11:08:00,51.8,33.2,29.96,NW,315,6.0,8.0,49,0.00,,,0.00,86,Wunderground v.1.15,2013-11-10 16:08:00,
2013-11-10 11:09:00,51.8,33.2,29.96,West,280,6.0,8.0,49,0.00,,,0.00,84,Wunderground v.1.15,2013-11-10 16:09:00,
2013-11-10 11:13:00,51.8,32.7,29.96,WNW,299,5.0,7.0,48,0.00,,,0.00,74,Wunderground v.1.15,2013-11-10 16:13:00,
2013-11-10 11:14:00,51.8,32.7,29.96,NNW,346,5.0,7.0,48,0.00,,,0.00,72,Wunderground v.1.15,2013-11-10 16:14:00,
2013-11-10 11:15:00,51.8,32.7,29.96,West,273,5.0,7.0,48,0.00,,,0.00,69,Wunderground v.1.15,2013-11-10 16:15:00,
2013-11-10 11:16:00,51.8,32.7,29.96,West,268,5.0,7.0,48,0.00,,,0.00,67,Wunderground v.1.15,2013-11-10 16:16:00,
2013-11-10 11:19:00,51.8,33.2,29.96,WSW,251,5.0,7.0,49,0.00,,,0.00,60,Wunderground v.1.15,2013-11-10 16:19:00,
2013-11-10 11:21:00,51.8,33.2,29.96,West,263,5.0,5.0,49,0.00,,,0.00,63,Wunderground v.1.15,2013-11-10 16:21:00,
2013-11-10 11:23:00,51.8,32.2,29.96,NW,318,5.0,7.0,47,0.00,,,0.00,62,Wunderground v.1.15,2013-11-10 16:23:00,
2013-11-10 11:24:00,51.9,32.8,29.96,West,267,5.0,8.0,48,0.00,,,0.00,56,Wunderground v.1.15,2013-11-10 16:24:00,
2013-11-10 11:26:00,51.8,32.2,29.96,WSW,242,6.0,10.0,47,0.00,,,0.00,49,Wunderground v.1.15,2013-11-10 16:26:00,
2013-11-10 11:27:00,51.8,32.2,29.96,North,5,6.0,10.0,47,0.00,,,0.00,51,Wunderground v.1.15,2013-11-10 16:27:00,
2013-11-10 11:31:00,51.7,32.1,29.96,WNW,300,7.0,7.0,47,0.00,,,0.00,51,Wunderground v.1.15,2013-11-10 16:31:00,
2013-11-10 11:33:00,51.7,32.1,29.96,WNW,298,7.0,11.0,47,0.00,,,0.00,51,Wunderground v.1.15,2013-11-10 16:33:00,
2013-11-10 11:34:00,51.6,31.5,29.96,West,272,7.0,11.0,46,0.00,,,0.00,51,Wunderground v.1.15,2013-11-10 16:34:00,
2013-11-10 11:35:00,51.6,31.5,29.96,SE,135,7.0,11.0,46,0.00,,,0.00,47,Wunderground v.1.15,2013-11-10 16:35:00,
2013-11-10 11:37:00,51.6,31.5,29.97,WNW,290,7.0,11.0,46,0.00,,,0.00,44,Wunderground v.1.15,2013-11-10 16:37:00,
2013-11-10 11:40:00,51.5,31.9,29.97,West,281,7.0,7.0,47,0.00,,,0.00,37,Wunderground v.1.15,2013-11-10 16:40:00,
2013-11-10 11:41:00,51.5,31.9,29.97,NW,321,7.0,7.0,47,0.00,,,0.00,39,Wunderground v.1.15,2013-11-10 16:41:00,
2013-11-10 11:44:00,51.4,32.3,29.97,WNW,288,6.0,18.0,48,0.00,,,0.00,35,Wunderground v.1.15,2013-11-10 16:44:00,
2013-11-10 11:46:00,51.3,32.3,29.97,NW,312,7.0,18.0,48,0.00,,,0.00,33,Wunderground v.1.15,2013-11-10 16:46:00,
2013-11-10 11:47:00,51.3,32.3,29.97,NNW,337,7.0,18.0,48,0.00,,,0.00,33,Wunderground v.1.15,2013-11-10 16:47:00,
2013-11-10 11:48:00,51.2,32.2,29.97,West,267,7.0,18.0,48,0.00,,,0.00,32,Wunderground v.1.15,2013-11-10 16:48:00,
2013-11-10 11:49:00,51.2,32.2,29.98,NW,309,7.0,18.0,48,0.00,,,0.00,32,Wunderground v.1.15,2013-11-10 16:49:00,
2013-11-10 11:51:00,51.0,32.5,29.97,WNW,292,7.0,10.0,49,0.00,,,0.00,30,Wunderground v.1.15,2013-11-10 16:51:00,
2013-11-10 11:52:00,51.0,32.5,29.98,WNW,284,8.0,10.0,49,0.00,,,0.00,32,Wunderground v.1.15,2013-11-10 16:52:00,
2013-11-10 11:54:00,50.9,31.9,29.97,WNW,286,8.0,11.0,48,0.00,,,0.00,32,Wunderground v.1.15,2013-11-10 16:54:00,
2013-11-10 11:55:00,50.9,32.4,29.98,WNW,288,8.0,11.0,49,0.00,,,0.00,30,Wunderground v.1.15,2013-11-10 16:55:00,
2013-11-10 11:57:00,50.8,32.3,29.98,WNW,285,8.0,11.0,49,0.00,,,0.00,32,Wunderground v.1.15,2013-11-10 16:57:00,
2013-11-10 12:00:00,50.6,32.6,29.98,NW,323,7.0,10.0,50,0.00,,,0.00,32,Wunderground v.1.15,2013-11-10 17:00:00,
2013-11-10 12:02:00,50.6,33.1,29.98,West,275,7.0,10.0,51,0.00,,,0.00,33,Wunderground v.1.15,2013-11-10 17:02:00,
2013-11-10 12:04:00,50.5,32.5,29.98,NNW,333,8.0,11.0,50,0.00,,,0.00,35,Wunderground v.1.15,2013-11-10 17:04:00,
2013-11-10 12:06:00,50.3,32.8,29.98,NW,313,8.0,21.0,51,0.00,,,0.00,37,Wunderground v.1.15,2013-11-10 17:06:00,
2013-11-10 12:07:00,50.3,32.8,29.98,WNW,300,8.0,21.0,51,0.00,,,0.00,40,Wunderground v.1.15,2013-11-10 17:07:00,
2013-11-10 12:08:00,50.2,32.8,29.98,WNW,292,8.0,21.0,51,0.00,,,0.00,42,Wunderground v.1.15,2013-11-10 17:08:00,
2013-11-10 12:09:00,50.2,32.8,29.98,WNW,294,9.0,21.0,51,0.00,,,0.00,46,Wunderground v.1.15,2013-11-10 17:09:00,
2013-11-10 12:10:00,50.2,32.8,29.98,North,11,9.0,10.0,51,0.00,,,0.00,46,Wunderground v.1.15,2013-11-10 17:10:00,
2013-11-10 12:11:00,50.1,32.7,29.98,West,277,9.0,10.0,51,0.00,,,0.00,49,Wunderground v.1.15,2013-11-10 17:11:00,
2013-11-10 12:15:00,50.1,32.2,29.98,NW,318,9.0,11.0,50,0.00,,,0.00,53,Wunderground v.1.15,2013-11-10 17:15:00,
2013-11-10 12:17:00,50.1,32.2,29.98,West,273,9.0,11.0,50,0.00,,,0.00,56,Wunderground v.1.15,2013-11-10 17:17:00,
2013-11-10 12:21:00,50.1,32.2,29.98,NW,317,8.0,10.0,50,0.00,,,0.00,54,Wunderground v.1.15,2013-11-10 17:21:00,
2013-11-10 12:22:00,50.1,32.2,29.98,NNW,338,8.0,10.0,50,0.00,,,0.00,46,Wunderground v.1.15,2013-11-10 17:22:00,
2013-11-10 12:23:00,50.1,32.2,29.98,NW,306,8.0,11.0,50,0.00,,,0.00,40,Wunderground v.1.15,2013-11-10 17:23:00,
2013-11-10 12:24:00,50.1,32.2,29.98,NW,313,9.0,11.0,50,0.00,,,0.00,37,Wunderground v.1.15,2013-11-10 17:24:00,
2013-11-10 12:25:00,50.1,32.7,29.98,West,279,8.0,11.0,51,0.00,,,0.00,35,Wunderground v.1.15,2013-11-10 17:25:00,
2013-11-10 12:26:00,50.1,32.7,29.98,NW,306,8.0,11.0,51,0.00,,,0.00,33,Wunderground v.1.15,2013-11-10 17:26:00,
2013-11-10 12:27:00,50.0,32.6,29.98,North,355,8.0,11.0,51,0.00,,,0.00,33,Wunderground v.1.15,2013-11-10 17:27:00,
2013-11-10 12:28:00,50.0,32.6,29.98,West,265,8.0,11.0,51,0.00,,,0.00,37,Wunderground v.1.15,2013-11-10 17:28:00,
2013-11-10 12:32:00,49.9,34.4,29.98,NW,306,8.0,10.0,55,0.00,,,0.00,53,Wunderground v.1.15,2013-11-10 17:32:00,
2013-11-10 12:33:00,49.8,34.7,29.98,NNW,339,7.0,10.0,56,0.00,,,0.00,67,Wunderground v.1.15,2013-11-10 17:33:00,
2013-11-10 12:34:00,49.7,35.1,29.98,WNW,288,7.0,10.0,57,0.00,,,0.00,76,Wunderground v.1.15,2013-11-10 17:34:00,
2013-11-10 12:35:00,49.6,35.0,29.99,WNW,292,7.0,10.0,57,0.00,,,0.00,84,Wunderground v.1.15,2013-11-10 17:35:00,
2013-11-10 12:36:00,49.5,34.9,29.98,WNW,301,7.0,10.0,57,0.00,,,0.00,95,Wunderground v.1.15,2013-11-10 17:36:00,
2013-11-10 12:40:00,49.2,35.9,29.98,WNW,288,6.0,6.0,60,0.00,,,0.00,204,Wunderground v.1.15,2013-11-10 17:40:00,
2013-11-10 12:41:00,49.2,35.9,29.98,WNW,284,5.0,6.0,60,0.00,,,0.00,213,Wunderground v.1.15,2013-11-10 17:41:00,
2013-11-10 12:42:00,49.2,35.9,29.99,WNW,299,5.0,6.0,60,0.00,,,0.00,206,Wunderground v.1.15,2013-11-10 17:42:00,
2013-11-10 12:43:00,49.2,35.9,29.99,WNW,288,5.0,6.0,60,0.00,,,0.00,190,Wunderground v.1.15,2013-11-10 17:43:00,
2013-11-10 12:44:00,49.2,36.3,29.99,NW,306,5.0,7.0,61,0.00,,,0.00,148,Wunderground v.1.15,2013-11-10 17:44:00,
2013-11-10 12:45:00,49.2,35.9,29.99,WNW,286,5.0,7.0,60,0.00,,,0.00,130,Wunderground v.1.15,2013-11-10 17:45:00,
2013-11-10 12:48:00,49.0,35.7,29.99,WNW,299,6.0,8.0,60,0.00,,,0.00,114,Wunderground v.1.15,2013-11-10 17:48:00,
2013-11-10 12:50:00,48.9,35.6,29.99,NNW,330,6.0,6.0,60,0.00,,,0.00,116,Wunderground v.1.15,2013-11-10 17:50:00,
2013-11-10 12:51:00,48.9,35.6,29.99,WNW,288,6.0,6.0,60,0.00,,,0.00,116,Wunderground v.1.15,2013-11-10 17:51:00,
2013-11-10 12:53:00,48.9,35.2,29.99,WNW,299,7.0,7.0,59,0.00,,,0.00,91,Wunderground v.1.15,2013-11-10 17:53:00,
2013-11-10 12:56:00,48.9,35.2,29.99,WNW,290,6.0,7.0,59,0.00,,,0.00,102,Wunderground v.1.15,2013-11-10 17:56:00,
2013-11-10 12:57:00,48.9,35.2,29.99,NW,307,6.0,7.0,59,0.00,,,0.00,111,Wunderground v.1.15,2013-11-10 17:57:00,
2013-11-10 12:59:00,48.9,34.8,29.99,NW,322,6.0,7.0,58,0.00,,,0.00,93,Wunderground v.1.15,2013-11-10 17:59:00,
2013-11-10 13:00:00,49.0,34.9,29.99,NW,318,6.0,6.0,58,0.00,,,0.00,77,Wunderground v.1.15,2013-11-10 18:00:00,
2013-11-10 13:02:00,49.0,34.9,29.99,WNW,284,6.0,7.0,58,0.00,,,0.00,77,Wunderground v.1.15,2013-11-10 18:02:00,
2013-11-10 13:04:00,49.0,35.3,29.99,NNW,327,5.0,7.0,59,0.00,,,0.00,130,Wunderground v.1.15,2013-11-10 18:04:00,
2013-11-10 13:06:00,49.0,34.9,29.99,NNW,344,5.0,7.0,58,0.00,,,0.00,121,Wunderground v.1.15,2013-11-10 18:06:00,
2013-11-10 13:07:00,49.0,34.9,29.99,NW,306,5.0,7.0,58,0.00,,,0.00,104,Wunderground v.1.15,2013-11-10 18:07:00,
2013-11-10 13:09:00,49.1,35.4,29.99,NW,313,5.0,7.0,59,0.00,,,0.00,102,Wunderground v.1.15,2013-11-10 18:09:00,
2013-11-10 13:12:00,49.0,35.3,29.99,West,277,5.0,6.0,59,0.00,,,0.00,102,Wunderground v.1.15,2013-11-10 18:12:00,
2013-11-10 13:14:00,49.0,35.3,29.99,WNW,283,5.0,6.0,59,0.00,,,0.00,113,Wunderground v.1.15,2013-11-10 18:14:00,
2013-11-10 13:16:00,48.9,34.8,30.00,West,277,5.0,6.0,58,0.00,,,0.00,58,Wunderground v.1.15,2013-11-10 18:16:00,
2013-11-10 13:18:00,48.9,34.3,29.99,WNW,302,5.0,6.0,57,0.00,,,0.00,40,Wunderground v.1.15,2013-11-10 18:18:00,
2013-11-10 13:19:00,48.9,34.3,29.99,NW,308,5.0,7.0,57,0.00,,,0.00,33,Wunderground v.1.15,2013-11-10 18:19:00,
2013-11-10 13:23:00,49.0,34.0,30.00,WNW,301,5.0,9.0,56,0.00,,,0.00,30,Wunderground v.1.15,2013-11-10 18:23:00,
2013-11-10 13:24:00,49.0,34.4,29.99,WNW,286,5.0,9.0,57,0.00,,,0.00,32,Wunderground v.1.15,2013-11-10 18:24:00,
2013-11-10 13:25:00,49.0,34.4,30.00,West,273,5.0,9.0,57,0.00,,,0.00,32,Wunderground v.1.15,2013-11-10 18:25:00,
2013-11-10 13:30:00,48.9,33.9,30.00,WNW,302,4.0,7.0,56,0.00,,,0.00,37,Wunderground v.1.15,2013-11-10 18:30:00,
2013-11-10 13:31:00,48.9,33.9,30.00,NW,304,4.0,7.0,56,0.00,,,0.00,37,Wunderground v.1.15,2013-11-10 18:31:00,
2013-11-10 13:32:00,49.0,32.6,30.00,West,259,4.0,7.0,53,0.00,,,0.00,39,Wunderground v.1.15,2013-11-10 18:32:00,
2013-11-10 13:33:00,49.0,32.6,30.00,WNW,282,4.0,7.0,53,0.00,,,0.00,39,Wunderground v.1.15,2013-11-10 18:33:00,
2013-11-10 13:36:00,49.2,33.3,30.00,WNW,301,5.0,9.0,54,0.00,,,0.00,39,Wunderground v.1.15,2013-11-10 18:36:00,
2013-11-10 13:38:00,49.2,32.3,30.01,NNW,336,6.0,9.0,52,0.00,,,0.00,39,Wunderground v.1.15,2013-11-10 18:38:00,
2013-11-10 13:40:00,49.3,31.9,30.01,NW,306,6.0,6.0,51,0.00,,,0.00,35,Wunderground v.1.15,2013-11-10 18:40:00,
2013-11-10 13:41:00,49.3,31.9,30.01,West,263,6.0,14.0,51,0.00,,,0.00,33,Wunderground v.1.15,2013-11-10 18:41:00,
2013-11-10 13:43:00,49.4,31.5,30.01,WNW,288,7.0,14.0,50,0.00,,,0.00,35,Wunderground v.1.15,2013-11-10 18:43:00,
2013-11-10 13:44:00,49.4,31.5,30.01,NW,318,7.0,14.0,50,0.00,,,0.00,39,Wunderground v.1.15,2013-11-10 18:44:00,
2013-11-10 13:46:00,49.4,31.5,30.01,NW,325,8.0,14.0,50,0.00,,,0.00,51,Wunderground v.1.15,2013-11-10 18:46:00,
2013-11-10 13:47:00,49.4,32.0,30.01,WNW,286,8.0,14.0,51,0.00,,,0.00,62,Wunderground v.1.15,2013-11-10 18:47:00,
2013-11-10 13:52:00,49.3,31.4,30.02,WNW,292,9.0,23.0,50,0.00,,,0.00,132,Wunderground v.1.15,2013-11-10 18:52:00,
2013-11-10 13:56:00,49.2,31.3,30.02,WNW,297,9.0,23.0,50,0.00,,,0.00,135,Wunderground v.1.15,2013-11-10 18:56:00,
2013-11-10 13:57:00,49.2,31.3,30.02,West,263,9.0,23.0,50,0.00,,,0.00,132,Wunderground v.1.15,2013-11-10 18:57:00,
2013-11-10 13:58:00,49.2,31.3,30.02,West,269,9.0,23.0,50,0.00,,,0.00,123,Wunderground v.1.15,2013-11-10 18:58:00,
2013-11-10 14:00:00,49.2,31.3,30.03,North,5,9.0,18.0,50,0.00,,,0.00,102,Wunderground v.1.15,2013-11-10 19:00:00,
2013-11-10 14:02:00,49.1,31.2,30.02,WNW,292,10.0,18.0,50,0.00,,,0.00,95,Wunderground v.1.15,2013-11-10 19:02:00,
2013-11-10 14:06:00,49.0,30.7,30.02,WSW,252,10.0,19.0,49,0.00,,,0.00,114,Wunderground v.1.15,2013-11-10 19:06:00,
2013-11-10 14:07:00,48.9,30.6,30.02,North,5,11.0,19.0,49,0.00,,,0.00,127,Wunderground v.1.15,2013-11-10 19:07:00,
2013-11-10 14:08:00,48.9,31.1,30.02,North,360,11.0,19.0,50,0.00,,,0.00,132,Wunderground v.1.15,2013-11-10 19:08:00,
2013-11-10 14:09:00,48.9,31.1,30.02,North,360,11.0,19.0,50,0.00,,,0.00,137,Wunderground v.1.15,2013-11-10 19:09:00,
2013-11-10 14:11:00,48.9,31.1,30.02,North,5,11.0,11.0,50,0.00,,,0.00,148,Wunderground v.1.15,2013-11-10 19:11:00,
2013-11-10 14:14:00,48.9,31.1,30.02,NW,308,11.0,13.0,50,0.00,,,0.00,151,Wunderground v.1.15,2013-11-10 19:14:00,
2013-11-10 14:17:00,49.0,30.7,30.02,NNW,340,9.0,13.0,49,0.00,,,0.00,144,Wunderground v.1.15,2013-11-10 19:17:00,
2013-11-10 14:18:00,49.0,30.7,30.02,WNW,289,9.0,13.0,49,0.00,,,0.00,116,Wunderground v.1.15,2013-11-10 19:18:00,
2013-11-10 14:20:00,49.0,30.7,30.02,West,267,8.0,8.0,49,0.00,,,0.00,95,Wunderground v.1.15,2013-11-10 19:20:00,
2013-11-10 14:21:00,49.0,30.1,30.03,WNW,288,8.0,9.0,48,0.00,,,0.00,88,Wunderground v.1.15,2013-11-10 19:21:00,
2013-11-10 14:24:00,49.0,29.6,30.03,WNW,292,8.0,9.0,47,0.00,,,0.00,70,Wunderground v.1.15,2013-11-10 19:24:00,
2013-11-10 14:26:00,49.0,29.6,30.03,WNW,303,8.0,12.0,47,0.00,,,0.00,60,Wunderground v.1.15,2013-11-10 19:26:00,
2013-11-10 14:27:00,48.9,30.1,30.03,WSW,252,8.0,12.0,48,0.00,,,0.00,60,Wunderground v.1.15,2013-11-10 19:27:00,
2013-11-10 14:28:00,48.9,30.1,30.03,WNW,298,8.0,12.0,48,0.00,,,0.00,60,Wunderground v.1.15,2013-11-10 19:28:00,
2013-11-10 14:29:00,48.8,30.0,30.03,North,355,8.0,14.0,48,0.00,,,0.00,58,Wunderground v.1.15,2013-11-10 19:29:00,
2013-11-10 14:31:00,48.8,29.4,30.03,WNW,297,9.0,10.0,47,0.00,,,0.00,56,Wunderground v.1.15,2013-11-10 19:31:00,
2013-11-10 14:33:00,48.8,29.4,30.03,West,275,9.0,19.0,47,0.00,,,0.00,53,Wunderground v.1.15,2013-11-10 19:33:00,
2013-11-10 14:34:00,48.7,29.4,30.03,WNW,301,9.0,19.0,47,0.00,,,0.00,51,Wunderground v.1.15,2013-11-10 19:34:00,
2013-11-10 14:37:00,48.7,29.4,30.03,West,281,9.0,19.0,47,0.00,,,0.00,46,Wunderground v.1.15,2013-11-10 19:37:00,
2013-11-10 14:38:00,48.7,29.9,30.04,NNW,342,9.0,19.0,48,0.00,,,0.00,42,Wunderground v.1.15,2013-11-10 19:38:00,
2013-11-10 14:39:00,48.6,29.8,30.04,NNW,329,9.0,19.0,48,0.00,,,0.00,42,Wunderground v.1.15,2013-11-10 19:39:00,
2013-11-10 14:40:00,48.6,29.8,30.04,West,281,9.0,9.0,48,0.00,,,0.00,46,Wunderground v.1.15,2013-11-10 19:40:00,
2013-11-10 14:42:00,48.6,29.3,30.04,NNW,329,9.0,9.0,47,0.00,,,0.00,67,Wunderground v.1.15,2013-11-10 19:42:00,
2013-11-10 14:45:00,48.6,29.8,30.03,WNW,302,8.0,9.0,48,0.00,,,0.00,77,Wunderground v.1.15,2013-11-10 19:45:00,
2013-11-10 14:48:00,48.6,29.8,30.03,West,261,8.0,9.0,48,0.00,,,0.00,95,Wunderground v.1.15,2013-11-10 19:48:00,
2013-11-10 14:49:00,48.6,29.8,30.04,NNW,338,8.0,9.0,48,0.00,,,0.00,91,Wunderground v.1.15,2013-11-10 19:49:00,
2013-11-10 14:50:00,48.6,29.8,30.04,WNW,294,8.0,8.0,48,0.00,,,0.00,86,Wunderground v.1.15,2013-11-10 19:50:00,
2013-11-10 14:52:00,48.7,29.9,30.04,NW,304,7.0,8.0,48,0.00,,,0.00,63,Wunderground v.1.15,2013-11-10 19:52:00,
2013-11-10 14:55:00,48.7,30.4,30.03,North,360,6.0,8.0,49,0.00,,,0.00,91,Wunderground v.1.15,2013-11-10 19:55:00,
2013-11-10 14:56:00,48.7,30.4,30.04,West,261,6.0,8.0,49,0.00,,,0.00,98,Wunderground v.1.15,2013-11-10 19:56:00,
2013-11-10 14:59:00,48.7,29.9,30.04,WNW,290,6.0,9.0,48,0.00,,,0.00,86,Wunderground v.1.15,2013-11-10 19:59:00,
2013-11-10 15:02:00,48.7,29.9,30.04,WNW,285,7.0,15.0,48,0.00,,,0.00,84,Wunderground v.1.15,2013-11-10 20:02:00,
2013-11-10 15:03:00,48.7,29.9,30.04,NNW,331,7.0,15.0,48,0.00,,,0.00,81,Wunderground v.1.15,2013-11-10 20:03:00,
2013-11-10 15:04:00,48.7,29.9,30.04,NNW,335,8.0,15.0,48,0.00,,,0.00,77,Wunderground v.1.15,2013-11-10 20:04:00,
2013-11-10 15:05:00,48.7,29.9,30.03,NW,304,8.0,15.0,48,0.00,,,0.00,69,Wunderground v.1.15,2013-11-10 20:05:00,
2013-11-10 15:08:00,48.7,29.9,30.04,West,268,8.0,15.0,48,0.00,,,0.00,72,Wunderground v.1.15,2013-11-10 20:08:00,
2013-11-10 15:10:00,48.7,29.9,30.04,West,275,8.0,8.0,48,0.00,,,0.00,65,Wunderground v.1.15,2013-11-10 20:10:00,
2013-11-10 15:11:00,48.7,30.4,30.04,West,279,8.0,8.0,49,0.00,,,0.00,60,Wunderground v.1.15,2013-11-10 20:11:00,
2013-11-10 15:13:00,48.6,29.8,30.04,WNW,302,7.0,8.0,48,0.00,,,0.00,56,Wunderground v.1.15,2013-11-10 20:13:00,
2013-11-10 15:16:00,48.7,29.9,30.05,West,262,7.0,8.0,48,0.00,,,0.00,44,Wunderground v.1.15,2013-11-10 20:16:00,
2013-11-10 15:17:00,48.7,29.9,30.04,West,279,7.0,8.0,48,0.00,,,0.00,44,Wunderground v.1.15,2013-11-10 20:17:00,
2013-11-10 15:20:00,48.7,29.9,30.05,WNW,283,8.0,10.0,48,0.00,,,0.00,39,Wunderground v.1.15,2013-11-10 20:20:00,
2013-11-10 15:21:00,48.7,29.9,30.05,NW,305,8.0,10.0,48,0.00,,,0.00,37,Wunderground v.1.15,2013-11-10 20:21:00,
2013-11-10 15:22:00,48.7,29.9,30.05,WNW,297,8.0,10.0,48,0.00,,,0.00,35,Wunderground v.1.15,2013-11-10 20:22:00,
2013-11-10 15:23:00,48.7,29.4,30.05,NW,311,8.0,10.0,47,0.00,,,0.00,35,Wunderground v.1.15,2013-11-10 20:23:00,
2013-11-10 15:26:00,48.8,29.4,30.05,NW,315,9.0,10.0,47,0.00,,,0.00,33,Wunderground v.1.15,2013-11-10 20:26:00,
2013-11-10 15:27:00,48.7,29.4,30.05,WNW,298,9.0,10.0,47,0.00,,,0.00,30,Wunderground v.1.15,2013-11-10 20:27:00,
2013-11-10 15:28:00,48.8,29.4,30.05,West,281,9.0,10.0,47,0.00,,,0.00,30,Wunderground v.1.15,2013-11-10 20:28:00,
2013-11-10 15:31:00,48.8,29.4,30.05,NNW,337,10.0,10.0,47,0.00,,,0.00,33,Wunderground v.1.15,2013-11-10 20:31:00,
2013-11-10 15:34:00,48.7,29.4,30.05,WNW,292,10.0,12.0,47,0.00,,,0.00,26,Wunderground v.1.15,2013-11-10 20:34:00,
2013-11-10 15:35:00,48.7,29.4,30.06,WNW,290,9.0,12.0,47,0.00,,,0.00,26,Wunderground v.1.15,2013-11-10 20:35:00,
2013-11-10 15:36:00,48.8,29.4,30.06,North,355,9.0,13.0,47,0.00,,,0.00,26,Wunderground v.1.15,2013-11-10 20:36:00,
2013-11-10 15:41:00,48.7,29.4,30.06,WSW,256,8.0,8.0,47,0.00,,,0.00,25,Wunderground v.1.15,2013-11-10 20:41:00,
2013-11-10 15:44:00,48.7,29.4,30.06,West,270,8.0,8.0,47,0.00,,,0.00,25,Wunderground v.1.15,2013-11-10 20:44:00,
2013-11-10 15:45:00,48.7,29.4,30.06,West,271,8.0,19.0,47,0.00,,,0.00,23,Wunderground v.1.15,2013-11-10 20:45:00,
2013-11-10 15:46:00,48.7,29.4,30.06,NW,315,8.0,19.0,47,0.00,,,0.00,25,Wunderground v.1.15,2013-11-10 20:46:00,
2013-11-10 15:47:00,48.7,29.4,30.06,NNE,13,8.0,19.0,47,0.00,,,0.00,25,Wunderground v.1.15,2013-11-10 20:47:00,
2013-11-10 15:48:00,48.7,29.4,30.06,West,265,8.0,19.0,47,0.00,,,0.00,21,Wunderground v.1.15,2013-11-10 20:48:00,
2013-11-10 15:49:00,48.7,29.4,30.06,WNW,298,8.0,19.0,47,0.00,,,0.00,19,Wunderground v.1.15,2013-11-10 20:49:00,
2013-11-10 15:51:00,48.7,29.4,30.06,West,273,8.0,8.0,47,0.00,,,0.00,25,Wunderground v.1.15,2013-11-10 20:51:00,
2013-11-10 15:54:00,48.6,29.8,30.06,WNW,286,8.0,11.0,48,0.00,,,0.00,25,Wunderground v.1.15,2013-11-10 20:54:00,
2013-11-10 15:56:00,48.6,29.3,30.06,NW,319,8.0,11.0,47,0.00,,,0.00,19,Wunderground v.1.15,2013-11-10 20:56:00,
2013-11-10 15:57:00,48.6,29.3,30.06,WNW,296,8.0,11.0,47,0.00,,,0.00,18,Wunderground v.1.15,2013-11-10 20:57:00,
2013-11-10 15:58:00,48.6,29.3,30.06,West,271,8.0,11.0,47,0.00,,,0.00,16,Wunderground v.1.15,2013-11-10 20:58:00,
2013-11-10 16:00:00,48.6,29.3,30.06,WNW,292,8.0,8.0,47,0.00,,,0.00,16,Wunderground v.1.15,2013-11-10 21:00:00,
2013-11-10 16:02:00,48.5,29.7,30.06,WNW,285,7.0,8.0,48,0.00,,,0.00,14,Wunderground v.1.15,2013-11-10 21:02:00,
2013-11-10 16:03:00,48.5,29.7,30.06,NW,319,7.0,8.0,48,0.00,,,0.00,14,Wunderground v.1.15,2013-11-10 21:03:00,
2013-11-10 16:05:00,48.5,29.7,30.07,WNW,296,8.0,8.0,48,0.00,,,0.00,12,Wunderground v.1.15,2013-11-10 21:05:00,
2013-11-10 16:07:00,48.5,29.7,30.07,NW,324,7.0,8.0,48,0.00,,,0.00,11,Wunderground v.1.15,2013-11-10 21:07:00,
2013-11-10 16:09:00,48.5,29.7,30.07,WNW,298,7.0,12.0,48,0.00,,,0.00,9,Wunderground v.1.15,2013-11-10 21:09:00,
2013-11-10 16:10:00,48.5,29.7,30.07,NW,309,7.0,8.0,48,0.00,,,0.00,11,Wunderground v.1.15,2013-11-10 21:10:00,
2013-11-10 16:12:00,48.4,30.1,30.07,West,263,6.0,19.0,49,0.00,,,0.00,11,Wunderground v.1.15,2013-11-10 21:12:00,
2013-11-10 16:13:00,48.4,29.6,30.07,NNE,12,7.0,19.0,48,0.00,,,0.00,11,Wunderground v.1.15,2013-11-10 21:13:00,
2013-11-10 16:14:00,48.4,29.6,30.07,WSW,257,7.0,19.0,48,0.00,,,0.00,11,Wunderground v.1.15,2013-11-10 21:14:00,
2013-11-10 16:16:00,48.3,29.5,30.07,NW,311,7.0,19.0,48,0.00,,,0.00,11,Wunderground v.1.15,2013-11-10 21:16:00,
2013-11-10 16:17:00,48.3,29.5,30.07,NW,318,7.0,19.0,48,0.00,,,0.00,11,Wunderground v.1.15,2013-11-10 21:17:00,
2013-11-10 16:20:00,48.3,30.0,30.07,WNW,295,7.0,7.0,49,0.00,,,0.00,11,Wunderground v.1.15,2013-11-10 21:20:00,
2013-11-10 16:21:00,48.3,30.0,30.07,WNW,284,7.0,7.0,49,0.00,,,0.00,11,Wunderground v.1.15,2013-11-10 21:21:00,
2013-11-10 16:24:00,48.2,29.4,30.08,NW,308,7.0,9.0,48,0.00,,,0.00,9,Wunderground v.1.15,2013-11-10 21:24:00,
2013-11-10 16:25:00,48.2,29.4,30.08,WNW,301,7.0,9.0,48,0.00,,,0.00,9,Wunderground v.1.15,2013-11-10 21:25:00,
2013-11-10 16:26:00,48.2,29.4,30.08,West,273,7.0,9.0,48,0.00,,,0.00,9,Wunderground v.1.15,2013-11-10 21:26:00,
2013-11-10 16:28:00,48.2,29.9,30.08,West,275,7.0,9.0,49,0.00,,,0.00,9,Wunderground v.1.15,2013-11-10 21:28:00,
2013-11-10 16:30:00,48.2,29.9,30.08,WNW,290,7.0,8.0,49,0.00,,,0.00,7,Wunderground v.1.15,2013-11-10 21:30:00,
2013-11-10 16:32:00,48.2,29.9,30.08,West,265,7.0,12.0,49,0.00,,,0.00,5,Wunderground v.1.15,2013-11-10 21:32:00,
2013-11-10 16:33:00,48.2,29.4,30.08,West,279,7.0,12.0,48,0.00,,,0.00,5,Wunderground v.1.15,2013-11-10 21:33:00,
2013-11-10 16:34:00,48.2,29.9,30.08,WNW,302,7.0,12.0,49,0.00,,,0.00,5,Wunderground v.1.15,2013-11-10 21:34:00,
2013-11-10 16:35:00,48.2,29.9,30.08,NW,304,7.0,12.0,49,0.00,,,0.00,5,Wunderground v.1.15,2013-11-10 21:35:00,
2013-11-10 16:38:00,48.1,29.8,30.08,West,277,7.0,12.0,49,0.00,,,0.00,0,Wunderground v.1.15,2013-11-10 21:38:00,
2013-11-10 16:42:00,48.1,29.8,30.08,NNW,329,6.0,7.0,49,0.00,,,0.00,0,Wunderground v.1.15,2013-11-10 21:42:00,
2013-11-10 16:43:00,48.0,29.7,30.08,WNW,287,6.0,7.0,49,0.00,,,0.00,0,Wunderground v.1.15,2013-11-10 21:43:00,
2013-11-10 16:44:00,48.0,29.7,30.08,NW,316,6.0,7.0,49,0.00,,,0.00,0,Wunderground v.1.15,2013-11-10 21:44:00,
2013-11-10 16:45:00,48.0,29.7,30.08,West,267,6.0,7.0,49,0.00,,,0.00,0,Wunderground v.1.15,2013-11-10 21:45:00,
2013-11-10 16:49:00,47.9,29.6,30.08,WNW,289,6.0,10.0,49,0.00,,,0.00,0,Wunderground v.1.15,2013-11-10 21:49:00,
2013-11-10 16:50:00,47.9,29.6,30.08,WNW,291,6.0,6.0,49,0.00,,,0.00,0,Wunderground v.1.15,2013-11-10 21:50:00,
2013-11-10 16:51:00,47.9,29.6,30.09,NNW,329,7.0,7.0,49,0.00,,,0.00,0,Wunderground v.1.15,2013-11-10 21:51:00,
2013-11-10 16:53:00,47.9,29.6,30.09,West,273,7.0,7.0,49,0.00,,,0.00,0,Wunderground v.1.15,2013-11-10 21:53:00,
2013-11-10 16:55:00,47.8,29.5,30.09,NNW,327,7.0,12.0,49,0.00,,,0.00,0,Wunderground v.1.15,2013-11-10 21:55:00,
2013-11-10 16:56:00,47.8,29.5,30.09,West,270,7.0,12.0,49,0.00,,,0.00,0,Wunderground v.1.15,2013-11-10 21:56:00,
2013-11-10 16:59:00,47.8,29.5,30.09,West,273,7.0,13.0,49,0.00,,,0.00,0,Wunderground v.1.15,2013-11-10 21:59:00,
2013-11-10 17:01:00,47.8,29.5,30.09,NW,306,7.0,8.0,49,0.00,,,0.00,0,Wunderground v.1.15,2013-11-10 22:01:00,
2013-11-10 17:03:00,47.8,29.5,30.09,NE,35,7.0,12.0,49,0.00,,,0.00,0,Wunderground v.1.15,2013-11-10 22:03:00,
2013-11-10 17:05:00,47.8,29.5,30.09,North,355,7.0,12.0,49,0.00,,,0.00,0,Wunderground v.1.15,2013-11-10 22:05:00,
2013-11-10 17:06:00,47.8,29.5,30.09,West,276,7.0,12.0,49,0.00,,,0.00,0,Wunderground v.1.15,2013-11-10 22:06:00,
2013-11-10 17:08:00,47.8,29.5,30.10,NW,308,7.0,13.0,49,0.00,,,0.00,0,Wunderground v.1.15,2013-11-10 22:08:00,
2013-11-10 17:11:00,47.7,29.5,30.10,NW,318,8.0,11.0,49,0.00,,,0.00,0,Wunderground v.1.15,2013-11-10 22:11:00,
2013-11-10 17:12:00,47.7,29.5,30.10,NW,312,8.0,11.0,49,0.00,,,0.00,0,Wunderground v.1.15,2013-11-10 22:12:00,
2013-11-10 17:13:00,47.7,29.5,30.10,West,271,8.0,11.0,49,0.00,,,0.00,0,Wunderground v.1.15,2013-11-10 22:13:00,
2013-11-10 17:14:00,47.7,30.0,30.10,WNW,302,8.0,11.0,50,0.00,,,0.00,0,Wunderground v.1.15,2013-11-10 22:14:00,
2013-11-10 17:18:00,47.6,29.9,30.10,West,269,7.0,11.0,50,0.00,,,0.00,0,Wunderground v.1.15,2013-11-10 22:18:00,
2013-11-10 17:19:00,47.6,29.9,30.10,WNW,290,7.0,12.0,50,0.00,,,0.00,0,Wunderground v.1.15,2013-11-10 22:19:00,
2013-11-10 17:20:00,47.6,29.9,30.10,WNW,291,7.0,7.0,50,0.00,,,0.00,0,Wunderground v.1.15,2013-11-10 22:20:00,
2013-11-10 17:22:00,47.5,29.8,30.10,NNW,329,6.0,7.0,50,0.00,,,0.00,0,Wunderground v.1.15,2013-11-10 22:22:00,
2013-11-10 17:23:00,47.5,29.8,30.10,West,268,6.0,7.0,50,0.00,,,0.00,0,Wunderground v.1.15,2013-11-10 22:23:00,
2013-11-10 17:27:00,47.4,29.7,30.10,West,271,6.0,11.0,50,0.00,,,0.00,0,Wunderground v.1.15,2013-11-10 22:27:00,
2013-11-10 17:28:00,47.4,29.7,30.10,WNW,291,6.0,11.0,50,0.00,,,0.00,0,Wunderground v.1.15,2013-11-10 22:28:00,
2013-11-10 17:29:00,47.4,29.7,30.10,WNW,301,7.0,11.0,50,0.00,,,0.00,0,Wunderground v.1.15,2013-11-10 22:29:00,
2013-11-10 17:30:00,47.4,29.7,30.11,NW,305,7.0,7.0,50,0.00,,,0.00,0,Wunderground v.1.15,2013-11-10 22:30:00,
2013-11-10 17:34:00,47.4,29.7,30.11,West,277,7.0,7.0,50,0.00,,,0.00,0,Wunderground v.1.15,2013-11-10 22:34:00,
2013-11-10 17:35:00,47.4,29.7,30.11,NW,314,7.0,7.0,50,0.00,,,0.00,0,Wunderground v.1.15,2013-11-10 22:35:00,
2013-11-10 17:36:00,47.4,29.7,30.11,WNW,298,7.0,7.0,50,0.00,,,0.00,0,Wunderground v.1.15,2013-11-10 22:36:00,
2013-11-10 17:40:00,47.4,30.2,30.11,NW,311,6.0,6.0,51,0.00,,,0.00,0,Wunderground v.1.15,2013-11-10 22:40:00,
2013-11-10 17:42:00,47.4,30.2,30.11,WNW,290,6.0,12.0,51,0.00,,,0.00,0,Wunderground v.1.15,2013-11-10 22:42:00,
2013-11-10 17:45:00,47.4,30.2,30.11,NW,307,6.0,12.0,51,0.00,,,0.00,0,Wunderground v.1.15,2013-11-10 22:45:00,
2013-11-10 17:46:00,47.3,30.1,30.11,NW,307,6.0,12.0,51,0.00,,,0.00,0,Wunderground v.1.15,2013-11-10 22:46:00,
2013-11-10 17:48:00,47.3,30.1,30.11,WSW,247,7.0,12.0,51,0.00,,,0.00,0,Wunderground v.1.15,2013-11-10 22:48:00,
2013-11-10 17:49:00,47.3,30.1,30.11,West,267,7.0,12.0,51,0.00,,,0.00,0,Wunderground v.1.15,2013-11-10 22:49:00,
2013-11-10 17:51:00,47.3,30.1,30.11,WSW,254,7.0,11.0,51,0.00,,,0.00,0,Wunderground v.1.15,2013-11-10 22:51:00,
2013-11-10 17:52:00,47.3,30.1,30.11,West,259,7.0,11.0,51,0.00,,,0.00,0,Wunderground v.1.15,2013-11-10 22:52:00,
2013-11-10 17:53:00,47.4,30.2,30.12,West,273,7.0,11.0,51,0.00,,,0.00,0,Wunderground v.1.15,2013-11-10 22:53:00,
2013-11-10 17:55:00,47.4,30.2,30.12,WNW,297,7.0,11.0,51,0.00,,,0.00,0,Wunderground v.1.15,2013-11-10 22:55:00,
2013-11-10 17:57:00,47.4,30.2,30.12,WNW,303,7.0,11.0,51,0.00,,,0.00,0,Wunderground v.1.15,2013-11-10 22:57:00,
2013-11-10 17:59:00,47.4,30.2,30.11,West,259,7.0,11.0,51,0.00,,,0.00,0,Wunderground v.1.15,2013-11-10 22:59:00,
2013-11-10 18:03:00,47.3,30.5,30.12,West,279,7.0,11.0,52,0.00,,,0.00,0,Wunderground v.1.15,2013-11-10 23:03:00,
2013-11-10 18:04:00,47.3,30.1,30.12,NNW,345,7.0,11.0,51,0.00,,,0.00,0,Wunderground v.1.15,2013-11-10 23:04:00,
2013-11-10 18:07:00,47.3,30.5,30.12,West,279,6.0,11.0,52,0.00,,,0.00,0,Wunderground v.1.15,2013-11-10 23:07:00,
2013-11-10 18:08:00,47.2,30.5,30.12,WNW,293,6.0,11.0,52,0.00,,,0.00,0,Wunderground v.1.15,2013-11-10 23:08:00,
2013-11-10 18:10:00,47.2,30.5,30.12,NW,309,6.0,8.0,52,0.00,,,0.00,0,Wunderground v.1.15,2013-11-10 23:10:00,
2013-11-10 18:13:00,47.2,30.5,30.12,NW,304,6.0,8.0,52,0.00,,,0.00,0,Wunderground v.1.15,2013-11-10 23:13:00,
2013-11-10 18:14:00,47.2,30.5,30.12,WNW,290,6.0,8.0,52,0.00,,,0.00,0,Wunderground v.1.15,2013-11-10 23:14:00,
2013-11-10 18:15:00,47.2,30.5,30.12,West,263,6.0,9.0,52,0.00,,,0.00,0,Wunderground v.1.15,2013-11-10 23:15:00,
2013-11-10 18:18:00,47.1,30.4,30.13,WNW,289,6.0,9.0,52,0.00,,,0.00,0,Wunderground v.1.15,2013-11-10 23:18:00,
2013-11-10 18:19:00,47.1,30.4,30.13,NNW,336,6.0,9.0,52,0.00,,,0.00,0,Wunderground v.1.15,2013-11-10 23:19:00,
2013-11-10 18:22:00,47.0,30.3,30.13,WSW,250,5.0,8.0,52,0.00,,,0.00,0,Wunderground v.1.15,2013-11-10 23:22:00,
2013-11-10 18:24:00,47.0,30.7,30.13,WNW,302,5.0,9.0,53,0.00,,,0.00,0,Wunderground v.1.15,2013-11-10 23:24:00,
2013-11-10 18:25:00,47.0,30.3,30.13,WNW,285,5.0,9.0,52,0.00,,,0.00,0,Wunderground v.1.15,2013-11-10 23:25:00,
2013-11-10 18:26:00,47.0,30.3,30.13,WNW,298,5.0,9.0,52,0.00,,,0.00,0,Wunderground v.1.15,2013-11-10 23:26:00,
2013-11-10 18:28:00,47.0,30.7,30.13,NNW,327,5.0,9.0,53,0.00,,,0.00,0,Wunderground v.1.15,2013-11-10 23:28:00,
2013-11-10 18:29:00,47.0,30.7,30.13,WSW,250,5.0,9.0,53,0.00,,,0.00,0,Wunderground v.1.15,2013-11-10 23:29:00,
2013-11-10 18:32:00,47.0,30.7,30.13,WNW,299,6.0,8.0,53,0.00,,,0.00,0,Wunderground v.1.15,2013-11-10 23:32:00,
2013-11-10 18:35:00,46.9,30.6,30.13,NW,314,6.0,8.0,53,0.00,,,0.00,0,Wunderground v.1.15,2013-11-10 23:35:00,
2013-11-10 18:37:00,46.9,30.6,30.13,WNW,292,6.0,8.0,53,0.00,,,0.00,0,Wunderground v.1.15,2013-11-10 23:37:00,
2013-11-10 18:38:00,46.9,30.6,30.13,West,275,6.0,8.0,53,0.00,,,0.00,0,Wunderground v.1.15,2013-11-10 23:38:00,
2013-11-10 18:40:00,46.9,30.6,30.14,WNW,303,6.0,7.0,53,0.00,,,0.00,0,Wunderground v.1.15,2013-11-10 23:40:00,
2013-11-10 18:41:00,46.9,30.6,30.14,NW,304,6.0,7.0,53,0.00,,,0.00,0,Wunderground v.1.15,2013-11-10 23:41:00,
2013-11-10 18:44:00,46.9,30.6,30.14,NW,314,6.0,7.0,53,0.00,,,0.00,0,Wunderground v.1.15,2013-11-10 23:44:00,
2013-11-10 18:45:00,46.9,30.6,30.14,West,277,6.0,8.0,53,0.00,,,0.00,0,Wunderground v.1.15,2013-11-10 23:45:00,
2013-11-10 18:47:00,46.9,30.6,30.14,WNW,298,6.0,8.0,53,0.00,,,0.00,0,Wunderground v.1.15,2013-11-10 23:47:00,
2013-11-10 18:48:00,46.9,30.6,30.14,WNW,283,6.0,8.0,53,0.00,,,0.00,0,Wunderground v.1.15,2013-11-10 23:48:00,
2013-11-10 18:50:00,46.9,30.6,30.14,WNW,286,6.0,6.0,53,0.00,,,0.00,0,Wunderground v.1.15,2013-11-10 23:50:00,
2013-11-10 18:52:00,46.9,30.6,30.14,WNW,284,5.0,6.0,53,0.00,,,0.00,0,Wunderground v.1.15,2013-11-10 23:52:00,
2013-11-10 18:56:00,46.8,30.6,30.14,West,273,6.0,7.0,53,0.00,,,0.00,0,Wunderground v.1.15,2013-11-10 23:56:00,
2013-11-10 18:57:00,46.8,30.6,30.14,NW,304,6.0,7.0,53,0.00,,,0.00,0,Wunderground v.1.15,2013-11-10 23:57:00,
2013-11-10 19:00:00,46.8,30.6,30.14,NNW,336,5.0,5.0,53,0.00,,,0.00,0,Wunderground v.1.15,2013-11-11 00:00:00,
2013-11-10 19:01:00,46.8,31.0,30.14,WNW,294,5.0,5.0,54,0.00,,,0.00,0,Wunderground v.1.15,2013-11-11 00:01:00,
2013-11-10 19:02:00,46.8,30.6,30.14,WNW,299,5.0,6.0,53,0.00,,,0.00,0,Wunderground v.1.15,2013-11-11 00:02:00,
2013-11-10 19:03:00,46.8,30.6,30.14,WSW,257,5.0,6.0,53,0.00,,,0.00,0,Wunderground v.1.15,2013-11-11 00:03:00,
2013-11-10 19:05:00,46.8,30.6,30.14,WNW,288,5.0,6.0,53,0.00,,,0.00,0,Wunderground v.1.15,2013-11-11 00:05:00,
2013-11-10 19:08:00,46.8,30.6,30.14,West,271,5.0,6.0,53,0.00,,,0.00,0,Wunderground v.1.15,2013-11-11 00:08:00,
2013-11-10 19:09:00,46.8,30.6,30.14,WNW,283,5.0,6.0,53,0.00,,,0.00,0,Wunderground v.1.15,2013-11-11 00:09:00,
2013-11-10 19:10:00,46.8,30.6,30.14,NW,305,5.0,5.0,53,0.00,,,0.00,0,Wunderground v.1.15,2013-11-11 00:10:00,
2013-11-10 19:12:00,46.8,30.6,30.14,NW,323,5.0,5.0,53,0.00,,,0.00,0,Wunderground v.1.15,2013-11-11 00:12:00,
2013-11-10 19:13:00,46.8,30.6,30.14,WNW,293,5.0,5.0,53,0.00,,,0.00,0,Wunderground v.1.15,2013-11-11 00:13:00,
2013-11-10 19:14:00,46.8,31.0,30.14,West,279,4.0,5.0,54,0.00,,,0.00,0,Wunderground v.1.15,2013-11-11 00:14:00,
2013-11-10 19:16:00,46.8,31.0,30.15,WSW,255,4.0,5.0,54,0.00,,,0.00,0,Wunderground v.1.15,2013-11-11 00:16:00,
2013-11-10 19:17:00,46.8,31.0,30.15,NW,322,4.0,5.0,54,0.00,,,0.00,0,Wunderground v.1.15,2013-11-11 00:17:00,
2013-11-10 19:19:00,46.7,30.9,30.15,West,269,4.0,13.0,54,0.00,,,0.00,0,Wunderground v.1.15,2013-11-11 00:19:00,
2013-11-10 19:20:00,46.7,30.9,30.15,NNW,342,5.0,5.0,54,0.00,,,0.00,0,Wunderground v.1.15,2013-11-11 00:20:00,
2013-11-10 19:24:00,46.7,30.9,30.15,WSW,257,5.0,8.0,54,0.00,,,0.00,0,Wunderground v.1.15,2013-11-11 00:24:00,
2013-11-10 19:26:00,46.7,30.9,30.15,WNW,288,6.0,8.0,54,0.00,,,0.00,0,Wunderground v.1.15,2013-11-11 00:26:00,
2013-11-10 19:27:00,46.7,30.9,30.15,NNE,17,6.0,8.0,54,0.00,,,0.00,0,Wunderground v.1.15,2013-11-11 00:27:00,
2013-11-10 19:29:00,46.7,30.9,30.15,West,272,6.0,8.0,54,0.00,,,0.00,0,Wunderground v.1.15,2013-11-11 00:29:00,
2013-11-10 19:31:00,46.6,31.3,30.15,WNW,300,6.0,6.0,55,0.00,,,0.00,0,Wunderground v.1.15,2013-11-11 00:31:00,
2013-11-10 19:35:00,46.5,31.2,30.15,WNW,296,6.0,9.0,55,0.00,,,0.00,0,Wunderground v.1.15,2013-11-11 00:35:00,
2013-11-10 19:36:00,46.4,31.1,30.16,WNW,302,7.0,9.0,55,0.00,,,0.00,0,Wunderground v.1.15,2013-11-11 00:36:00,
2013-11-10 19:38:00,46.4,31.1,30.15,WNW,301,7.0,9.0,55,0.00,,,0.00,0,Wunderground v.1.15,2013-11-11 00:38:00,
2013-11-10 19:39:00,46.4,31.5,30.15,NNW,327,7.0,9.0,56,0.00,,,0.00,0,Wunderground v.1.15,2013-11-11 00:39:00,
2013-11-10 19:41:00,46.3,31.4,30.15,WSW,256,7.0,8.0,56,0.00,,,0.00,0,Wunderground v.1.15,2013-11-11 00:41:00,
2013-11-10 19:44:00,46.3,31.4,30.15,West,268,7.0,10.0,56,0.00,,,0.00,0,Wunderground v.1.15,2013-11-11 00:44:00,
2013-11-10 19:45:00,46.3,31.4,30.16,WNW,295,6.0,10.0,56,0.00,,,0.00,0,Wunderground v.1.15,2013-11-11 00:45:00,
2013-11-10 19:48:00,46.1,31.3,30.16,North,350,6.0,10.0,56,0.00,,,0.00,0,Wunderground v.1.15,2013-11-11 00:48:00,
2013-11-10 19:49:00,46.1,31.3,30.16,NW,311,6.0,10.0,56,0.00,,,0.00,0,Wunderground v.1.15,2013-11-11 00:49:00,
2013-11-10 19:50:00,46.0,31.2,30.16,NW,305,6.0,6.0,56,0.00,,,0.00,0,Wunderground v.1.15,2013-11-11 00:50:00,
2013-11-10 19:53:00,45.9,31.5,30.16,West,281,5.0,8.0,57,0.00,,,0.00,0,Wunderground v.1.15,2013-11-11 00:53:00,
2013-11-10 19:57:00,45.8,31.4,30.16,West,274,6.0,10.0,57,0.00,,,0.00,0,Wunderground v.1.15,2013-11-11 00:57:00,
2013-11-10 19:59:00,45.6,31.2,30.16,North,355,6.0,10.0,57,0.00,,,0.00,0,Wunderground v.1.15,2013-11-11 00:59:00,
2013-11-10 20:00:00,45.6,31.2,30.16,NNW,346,6.0,10.0,57,0.00,,,0.00,0,Wunderground v.1.15,2013-11-11 01:00:00,
2013-11-10 20:03:00,45.6,31.2,30.16,NW,304,7.0,10.0,57,0.00,,,0.00,0,Wunderground v.1.15,2013-11-11 01:03:00,
2013-11-10 20:04:00,45.5,31.1,30.17,NW,322,7.0,10.0,57,0.00,,,0.00,0,Wunderground v.1.15,2013-11-11 01:04:00,
2013-11-10 20:09:00,45.4,31.0,30.17,WNW,299,7.0,10.0,57,0.00,,,0.00,0,Wunderground v.1.15,2013-11-11 01:09:00,
2013-11-10 20:10:00,45.4,31.0,30.17,NW,315,7.0,7.0,57,0.00,,,0.00,0,Wunderground v.1.15,2013-11-11 01:10:00,
2013-11-10 20:11:00,45.4,31.0,30.17,WNW,286,7.0,7.0,57,0.00,,,0.00,0,Wunderground v.1.15,2013-11-11 01:11:00,
2013-11-10 20:13:00,45.4,31.0,30.17,West,260,6.0,7.0,57,0.00,,,0.00,0,Wunderground v.1.15,2013-11-11 01:13:00,
2013-11-10 20:15:00,45.3,31.0,30.17,West,273,6.0,7.0,57,0.00,,,0.00,0,Wunderground v.1.15,2013-11-11 01:15:00,
2013-11-10 20:17:00,45.2,30.9,30.17,NNE,13,6.0,10.0,57,0.00,,,0.00,0,Wunderground v.1.15,2013-11-11 01:17:00,
2013-11-10 20:19:00,45.2,30.9,30.17,NNW,340,6.0,11.0,57,0.00,,,0.00,0,Wunderground v.1.15,2013-11-11 01:19:00,
2013-11-10 20:20:00,45.2,31.3,30.17,WNW,294,6.0,6.0,58,0.00,,,0.00,0,Wunderground v.1.15,2013-11-11 01:20:00,
2013-11-10 20:23:00,45.1,31.2,30.17,WNW,294,6.0,8.0,58,0.00,,,0.00,0,Wunderground v.1.15,2013-11-11 01:23:00,
2013-11-10 20:24:00,45.1,31.2,30.17,NW,311,6.0,8.0,58,0.00,,,0.00,0,Wunderground v.1.15,2013-11-11 01:24:00,
2013-11-10 20:26:00,45.1,31.2,30.17,NNE,16,7.0,13.0,58,0.00,,,0.00,0,Wunderground v.1.15,2013-11-11 01:26:00,
2013-11-10 20:27:00,45.1,31.2,30.17,WSW,245,7.0,13.0,58,0.00,,,0.00,0,Wunderground v.1.15,2013-11-11 01:27:00,
2013-11-10 20:29:00,45.2,31.3,30.17,WNW,298,7.0,13.0,58,0.00,,,0.00,0,Wunderground v.1.15,2013-11-11 01:29:00,
2013-11-10 20:30:00,45.2,31.3,30.17,WNW,303,7.0,7.0,58,0.00,,,0.00,0,Wunderground v.1.15,2013-11-11 01:30:00,
2013-11-10 20:32:00,45.2,31.3,30.18,NW,313,7.0,7.0,58,0.00,,,0.00,0,Wunderground v.1.15,2013-11-11 01:32:00,
2013-11-10 20:34:00,45.2,31.3,30.17,WNW,291,7.0,7.0,58,0.00,,,0.00,0,Wunderground v.1.15,2013-11-11 01:34:00,
2013-11-10 20:35:00,45.2,31.3,30.18,West,279,7.0,7.0,58,0.00,,,0.00,0,Wunderground v.1.15,2013-11-11 01:35:00,
2013-11-10 20:36:00,45.2,31.3,30.18,NW,306,6.0,7.0,58,0.00,,,0.00,0,Wunderground v.1.15,2013-11-11 01:36:00,
2013-11-10 20:37:00,45.2,31.3,30.18,West,263,6.0,7.0,58,0.00,,,0.00,0,Wunderground v.1.15,2013-11-11 01:37:00,
2013-11-10 20:42:00,45.3,31.4,30.18,West,261,5.0,8.0,58,0.00,,,0.00,0,Wunderground v.1.15,2013-11-11 01:42:00,
2013-11-10 20:43:00,45.3,31.4,30.18,NW,311,5.0,8.0,58,0.00,,,0.00,0,Wunderground v.1.15,2013-11-11 01:43:00,
2013-11-10 20:46:00,45.3,31.4,30.18,West,267,5.0,8.0,58,0.00,,,0.00,0,Wunderground v.1.15,2013-11-11 01:46:00,
2013-11-10 20:49:00,45.4,31.5,30.18,NW,322,5.0,8.0,58,0.00,,,0.00,0,Wunderground v.1.15,2013-11-11 01:49:00,
2013-11-10 20:52:00,45.4,31.5,30.18,West,272,5.0,6.0,58,0.00,,,0.00,0,Wunderground v.1.15,2013-11-11 01:52:00,
2013-11-10 20:54:00,45.4,31.5,30.18,WNW,295,4.0,6.0,58,0.00,,,0.00,0,Wunderground v.1.15,2013-11-11 01:54:00,
2013-11-10 20:55:00,45.4,31.5,30.18,NNW,333,4.0,6.0,58,0.00,,,0.00,0,Wunderground v.1.15,2013-11-11 01:55:00,
2013-11-10 20:57:00,45.4,31.5,30.18,WNW,300,4.0,6.0,58,0.00,,,0.00,0,Wunderground v.1.15,2013-11-11 01:57:00,
2013-11-10 20:59:00,45.4,31.5,30.19,WNW,289,4.0,6.0,58,0.00,,,0.00,0,Wunderground v.1.15,2013-11-11 01:59:00,
2013-11-10 21:01:00,45.5,31.6,30.19,WNW,282,4.0,4.0,58,0.00,,,0.00,0,Wunderground v.1.15,2013-11-11 02:01:00,
2013-11-10 21:02:00,45.5,31.6,30.19,West,270,3.0,4.0,58,0.00,,,0.00,0,Wunderground v.1.15,2013-11-11 02:02:00,
2013-11-10 21:03:00,45.5,31.6,30.19,West,266,3.0,5.0,58,0.00,,,0.00,0,Wunderground v.1.15,2013-11-11 02:03:00,
2013-11-10 21:07:00,45.5,31.6,30.19,West,273,3.0,6.0,58,0.00,,,0.00,0,Wunderground v.1.15,2013-11-11 02:07:00,
2013-11-10 21:08:00,45.5,31.6,30.19,WNW,294,3.0,8.0,58,0.00,,,0.00,0,Wunderground v.1.15,2013-11-11 02:08:00,
2013-11-10 21:10:00,45.6,31.2,30.19,NW,310,4.0,4.0,57,0.00,,,0.00,0,Wunderground v.1.15,2013-11-11 02:10:00,
2013-11-10 21:12:00,45.5,31.1,30.19,West,279,4.0,4.0,57,0.00,,,0.00,0,Wunderground v.1.15,2013-11-11 02:12:00,
2013-11-10 21:13:00,45.5,31.6,30.19,NNE,29,4.0,4.0,58,0.00,,,0.00,0,Wunderground v.1.15,2013-11-11 02:13:00,
2013-11-10 21:15:00,45.5,31.1,30.19,NW,321,5.0,5.0,57,0.00,,,0.00,0,Wunderground v.1.15,2013-11-11 02:15:00,
2013-11-10 21:16:00,45.5,31.1,30.19,WNW,289,4.0,5.0,57,0.00,,,0.00,0,Wunderground v.1.15,2013-11-11 02:16:00,
2013-11-10 21:17:00,45.5,31.6,30.19,NW,322,4.0,5.0,58,0.00,,,0.00,0,Wunderground v.1.15,2013-11-11 02:17:00,
2013-11-10 21:20:00,45.5,31.6,30.19,WNW,285,3.0,3.0,58,0.00,,,0.00,0,Wunderground v.1.15,2013-11-11 02:20:00,
2013-11-10 21:21:00,45.5,31.6,30.19,NE,40,3.0,3.0,58,0.00,,,0.00,0,Wunderground v.1.15,2013-11-11 02:21:00,
2013-11-10 21:23:00,45.5,31.6,30.19,WNW,285,3.0,5.0,58,0.00,,,0.00,0,Wunderground v.1.15,2013-11-11 02:23:00,
2013-11-10 21:26:00,45.5,31.6,30.19,WSW,258,3.0,8.0,58,0.00,,,0.00,0,Wunderground v.1.15,2013-11-11 02:26:00,
2013-11-10 21:28:00,45.5,31.6,30.19,West,281,4.0,8.0,58,0.00,,,0.00,0,Wunderground v.1.15,2013-11-11 02:28:00,
2013-11-10 21:29:00,45.5,31.6,30.19,West,265,4.0,8.0,58,0.00,,,0.00,0,Wunderground v.1.15,2013-11-11 02:29:00,
2013-11-10 21:30:00,45.5,31.6,30.19,NW,304,4.0,4.0,58,0.00,,,0.00,0,Wunderground v.1.15,2013-11-11 02:30:00,
2013-11-10 21:32:00,45.5,31.6,30.19,West,270,4.0,5.0,58,0.00,,,0.00,0,Wunderground v.1.15,2013-11-11 02:32:00,
2013-11-10 21:34:00,45.5,31.6,30.19,West,268,4.0,5.0,58,0.00,,,0.00,0,Wunderground v.1.15,2013-11-11 02:34:00,
2013-11-10 21:35:00,45.4,31.5,30.19,West,268,4.0,5.0,58,0.00,,,0.00,0,Wunderground v.1.15,2013-11-11 02:35:00,
2013-11-10 21:38:00,45.4,31.9,30.19,West,272,3.0,5.0,59,0.00,,,0.00,0,Wunderground v.1.15,2013-11-11 02:38:00,
2013-11-10 21:40:00,45.4,31.9,30.20,WNW,290,3.0,3.0,59,0.00,,,0.00,0,Wunderground v.1.15,2013-11-11 02:40:00,
2013-11-10 21:41:00,45.4,31.9,30.20,NW,322,3.0,3.0,59,0.00,,,0.00,0,Wunderground v.1.15,2013-11-11 02:41:00,
2013-11-10 21:42:00,45.4,31.9,30.20,WSW,241,3.0,6.0,59,0.00,,,0.00,0,Wunderground v.1.15,2013-11-11 02:42:00,
2013-11-10 21:45:00,45.3,31.8,30.20,WNW,299,3.0,6.0,59,0.00,,,0.00,0,Wunderground v.1.15,2013-11-11 02:45:00,
2013-11-10 21:47:00,45.2,32.1,30.20,NW,306,4.0,6.0,60,0.00,,,0.00,0,Wunderground v.1.15,2013-11-11 02:47:00,
2013-11-10 21:48:00,45.2,32.1,30.20,WNW,294,4.0,6.0,60,0.00,,,0.00,0,Wunderground v.1.15,2013-11-11 02:48:00,
2013-11-10 21:51:00,45.1,32.0,30.20,West,281,3.0,6.0,60,0.00,,,0.00,0,Wunderground v.1.15,2013-11-11 02:51:00,
2013-11-10 21:52:00,45.1,32.0,30.20,West,281,3.0,6.0,60,0.00,,,0.00,0,Wunderground v.1.15,2013-11-11 02:52:00,
2013-11-10 21:53:00,45.1,32.0,30.20,WNW,292,3.0,6.0,60,0.00,,,0.00,0,Wunderground v.1.15,2013-11-11 02:53:00,
2013-11-10 21:55:00,45.1,32.0,30.20,NW,308,3.0,6.0,60,0.00,,,0.00,0,Wunderground v.1.15,2013-11-11 02:55:00,
2013-11-10 21:57:00,45.0,32.3,30.20,NW,311,3.0,6.0,61,0.00,,,0.00,0,Wunderground v.1.15,2013-11-11 02:57:00,
2013-11-10 21:58:00,44.9,32.3,30.20,West,275,3.0,10.0,61,0.00,,,0.00,0,Wunderground v.1.15,2013-11-11 02:58:00,
2013-11-10 21:59:00,44.9,31.8,30.20,West,260,4.0,13.0,60,0.00,,,0.00,0,Wunderground v.1.15,2013-11-11 02:59:00,
2013-11-10 22:01:00,44.9,31.8,30.20,NNW,333,5.0,7.0,60,0.00,,,0.00,0,Wunderground v.1.15,2013-11-11 03:01:00,
2013-11-10 22:04:00,44.8,31.8,30.20,WNW,296,6.0,8.0,60,0.00,,,0.00,0,Wunderground v.1.15,2013-11-11 03:04:00,
2013-11-10 22:05:00,44.7,31.7,30.20,West,280,6.0,8.0,60,0.00,,,0.00,0,Wunderground v.1.15,2013-11-11 03:05:00,
2013-11-10 22:06:00,44.7,31.7,30.20,NW,306,6.0,11.0,60,0.00,,,0.00,0,Wunderground v.1.15,2013-11-11 03:06:00,
2013-11-10 22:07:00,44.7,31.7,30.20,WNW,284,7.0,11.0,60,0.00,,,0.00,0,Wunderground v.1.15,2013-11-11 03:07:00,
2013-11-10 22:08:00,44.6,31.6,30.20,NW,309,7.0,11.0,60,0.00,,,0.00,0,Wunderground v.1.15,2013-11-11 03:08:00,
2013-11-10 22:11:00,44.5,31.5,30.20,WNW,302,7.0,7.0,60,0.00,,,0.00,0,Wunderground v.1.15,2013-11-11 03:11:00,
2013-11-10 22:12:00,44.5,31.5,30.20,WNW,302,7.0,7.0,60,0.00,,,0.00,0,Wunderground v.1.15,2013-11-11 03:12:00,
2013-11-10 22:14:00,44.4,31.4,30.20,NNE,20,6.0,7.0,60,0.00,,,0.00,0,Wunderground v.1.15,2013-11-11 03:14:00,
2013-11-10 22:18:00,44.3,31.3,30.20,NW,307,7.0,10.0,60,0.00,,,0.00,0,Wunderground v.1.15,2013-11-11 03:18:00,
2013-11-10 22:19:00,44.3,31.3,30.20,WNW,298,7.0,10.0,60,0.00,,,0.00,0,Wunderground v.1.15,2013-11-11 03:19:00,
2013-11-10 22:20:00,44.3,31.3,30.20,NW,305,7.0,7.0,60,0.00,,,0.00,0,Wunderground v.1.15,2013-11-11 03:20:00,
2013-11-10 22:22:00,44.3,31.3,30.20,NW,306,7.0,8.0,60,0.00,,,0.00,0,Wunderground v.1.15,2013-11-11 03:22:00,
2013-11-10 22:24:00,44.3,31.3,30.20,West,279,7.0,9.0,60,0.00,,,0.00,0,Wunderground v.1.15,2013-11-11 03:24:00,
2013-11-10 22:25:00,44.2,31.2,30.20,West,281,7.0,9.0,60,0.00,,,0.00,0,Wunderground v.1.15,2013-11-11 03:25:00,
2013-11-10 22:29:00,44.0,31.0,30.20,North,11,6.0,9.0,60,0.00,,,0.00,0,Wunderground v.1.15,2013-11-11 03:29:00,
2013-11-10 22:32:00,43.9,30.9,30.20,NNW,335,6.0,11.0,60,0.00,,,0.00,0,Wunderground v.1.15,2013-11-11 03:32:00,
2013-11-10 22:33:00,43.9,30.1,30.20,WNW,296,6.0,11.0,58,0.00,,,0.00,0,Wunderground v.1.15,2013-11-11 03:33:00,
2013-11-10 22:34:00,43.9,30.1,30.20,WNW,296,7.0,13.0,58,0.00,,,0.00,0,Wunderground v.1.15,2013-11-11 03:34:00,
2013-11-10 22:36:00,43.9,30.5,30.20,WNW,300,8.0,13.0,59,0.00,,,0.00,0,Wunderground v.1.15,2013-11-11 03:36:00,
2013-11-10 22:38:00,43.9,30.5,30.20,WSW,249,8.0,13.0,59,0.00,,,0.00,0,Wunderground v.1.15,2013-11-11 03:38:00,
2013-11-10 22:40:00,43.8,30.0,30.20,NW,319,8.0,11.0,58,0.00,,,0.00,0,Wunderground v.1.15,2013-11-11 03:40:00,
2013-11-10 22:41:00,43.7,29.9,30.20,North,355,8.0,11.0,58,0.00,,,0.00,0,Wunderground v.1.15,2013-11-11 03:41:00,
2013-11-10 22:46:00,43.7,29.9,30.20,NW,323,7.0,11.0,58,0.00,,,0.00,0,Wunderground v.1.15,2013-11-11 03:46:00,
2013-11-10 22:47:00,43.6,29.8,30.21,NNW,330,7.0,11.0,58,0.00,,,0.00,0,Wunderground v.1.15,2013-11-11 03:47:00,
2013-11-10 22:48:00,43.6,29.8,30.21,WNW,284,7.0,11.0,58,0.00,,,0.00,0,Wunderground v.1.15,2013-11-11 03:48:00,
2013-11-10 22:49:00,43.6,30.2,30.20,NW,306,7.0,11.0,59,0.00,,,0.00,0,Wunderground v.1.15,2013-11-11 03:49:00,
2013-11-10 22:50:00,43.6,29.8,30.20,NW,305,7.0,12.0,58,0.00,,,0.00,0,Wunderground v.1.15,2013-11-11 03:50:00,
2013-11-10 22:52:00,43.6,29.8,30.21,North,11,6.0,12.0,58,0.00,,,0.00,0,Wunderground v.1.15,2013-11-11 03:52:00,
2013-11-10 22:53:00,43.5,29.7,30.20,WNW,290,6.0,12.0,58,0.00,,,0.00,0,Wunderground v.1.15,2013-11-11 03:53:00,
2013-11-10 22:55:00,43.5,29.7,30.21,NW,305,6.0,12.0,58,0.00,,,0.00,0,Wunderground v.1.15,2013-11-11 03:55:00,
2013-11-10 22:57:00,43.5,29.3,30.20,WNW,291,7.0,12.0,57,0.00,,,0.00,0,Wunderground v.1.15,2013-11-11 03:57:00,
2013-11-10 22:58:00,43.4,29.6,30.21,West,265,7.0,12.0,58,0.00,,,0.00,0,Wunderground v.1.15,2013-11-11 03:58:00,
2013-11-10 22:59:00,43.4,29.6,30.21,WNW,303,7.0,12.0,58,0.00,,,0.00,0,Wunderground v.1.15,2013-11-11 03:59:00,
2013-11-10 23:04:00,43.2,29.4,30.21,WNW,284,6.0,8.0,58,0.00,,,0.00,0,Wunderground v.1.15,2013-11-11 04:04:00,
2013-11-10 23:05:00,43.2,29.4,30.21,WNW,288,6.0,9.0,58,0.00,,,0.00,0,Wunderground v.1.15,2013-11-11 04:05:00,
2013-11-10 23:07:00,43.2,29.0,30.21,WNW,288,6.0,11.0,57,0.00,,,0.00,0,Wunderground v.1.15,2013-11-11 04:07:00,
2013-11-10 23:08:00,43.2,29.0,30.21,North,5,6.0,11.0,57,0.00,,,0.00,0,Wunderground v.1.15,2013-11-11 04:08:00,
2013-11-10 23:09:00,43.2,29.0,30.21,WNW,289,6.0,11.0,57,0.00,,,0.00,0,Wunderground v.1.15,2013-11-11 04:09:00,
2013-11-10 23:10:00,43.2,29.0,30.21,West,269,7.0,7.0,57,0.00,,,0.00,0,Wunderground v.1.15,2013-11-11 04:10:00,
2013-11-10 23:14:00,43.1,28.9,30.21,WNW,299,8.0,9.0,57,0.00,,,0.00,0,Wunderground v.1.15,2013-11-11 04:14:00,
2013-11-10 23:17:00,43.1,28.9,30.21,West,275,7.0,9.0,57,0.00,,,0.00,0,Wunderground v.1.15,2013-11-11 04:17:00,
2013-11-10 23:18:00,43.0,28.8,30.21,NW,323,7.0,9.0,57,0.00,,,0.00,0,Wunderground v.1.15,2013-11-11 04:18:00,
2013-11-10 23:21:00,43.0,28.8,30.21,North,355,7.0,9.0,57,0.00,,,0.00,0,Wunderground v.1.15,2013-11-11 04:21:00,
2013-11-10 23:22:00,43.0,28.8,30.21,West,273,7.0,13.0,57,0.00,,,0.00,0,Wunderground v.1.15,2013-11-11 04:22:00,
2013-11-10 23:24:00,43.0,28.8,30.21,NW,310,7.0,13.0,57,0.00,,,0.00,0,Wunderground v.1.15,2013-11-11 04:24:00,
2013-11-10 23:25:00,43.0,28.8,30.21,West,279,7.0,13.0,57,0.00,,,0.00,0,Wunderground v.1.15,2013-11-11 04:25:00,
2013-11-10 23:26:00,43.0,28.8,30.21,WNW,289,7.0,13.0,57,0.00,,,0.00,0,Wunderground v.1.15,2013-11-11 04:26:00,
2013-11-10 23:27:00,42.9,28.7,30.21,NNW,345,7.0,13.0,57,0.00,,,0.00,0,Wunderground v.1.15,2013-11-11 04:27:00,
2013-11-10 23:31:00,42.8,28.6,30.21,North,355,6.0,8.0,57,0.00,,,0.00,0,Wunderground v.1.15,2013-11-11 04:31:00,
2013-11-10 23:32:00,42.8,28.6,30.21,NW,317,6.0,8.0,57,0.00,,,0.00,0,Wunderground v.1.15,2013-11-11 04:32:00,
2013-11-10 23:33:00,42.8,28.6,30.21,WNW,295,6.0,8.0,57,0.00,,,0.00,0,Wunderground v.1.15,2013-11-11 04:33:00,
2013-11-10 23:35:00,42.8,28.6,30.21,WNW,300,6.0,13.0,57,0.00,,,0.00,0,Wunderground v.1.15,2013-11-11 04:35:00,
2013-11-10 23:39:00,42.7,28.9,30.21,North,355,6.0,13.0,58,0.00,,,0.00,0,Wunderground v.1.15,2013-11-11 04:39:00,
2013-11-10 23:41:00,42.6,28.8,30.21,WNW,300,6.0,6.0,58,0.00,,,0.00,0,Wunderground v.1.15,2013-11-11 04:41:00,
2013-11-10 23:45:00,42.5,28.8,30.21,WNW,288,5.0,9.0,58,0.00,,,0.00,0,Wunderground v.1.15,2013-11-11 04:45:00,
2013-11-10 23:46:00,42.5,28.8,30.21,NW,318,5.0,9.0,58,0.00,,,0.00,0,Wunderground v.1.15,2013-11-11 04:46:00,
2013-11-10 23:47:00,42.5,28.8,30.21,NW,325,5.0,9.0,58,0.00,,,0.00,0,Wunderground v.1.15,2013-11-11 04:47:00,
2013-11-10 23:49:00,42.4,28.7,30.21,West,271,5.0,9.0,58,0.00,,,0.00,0,Wunderground v.1.15,2013-11-11 04:49:00,
2013-11-10 23:52:00,42.4,28.7,30.21,NNW,328,6.0,6.0,58,0.00,,,0.00,0,Wunderground v.1.15,2013-11-11 04:52:00,
2013-11-10 23:54:00,42.4,28.7,30.21,WNW,290,5.0,6.0,58,0.00,,,0.00,0,Wunderground v.1.15,2013-11-11 04:54:00,
2013-11-10 23:55:00,42.4,29.1,30.21,NW,316,5.0,6.0,59,0.00,,,0.00,0,Wunderground v.1.15,2013-11-11 04:55:00,
2013-11-10 23:56:00,42.3,29.0,30.21,NW,323,5.0,6.0,59,0.00,,,0.00,0,Wunderground v.1.15,2013-11-11 04:56:00,
2013-11-10 23:57:00,42.3,29.0,30.21,WNW,300,4.0,6.0,59,0.00,,,0.00,0,Wunderground v.1.15,2013-11-11 04:57:00,
2013-11-10 23:58:00,42.3,29.0,30.21,WNW,285,4.0,6.0,59,0.00,,,0.00,0,Wunderground v.1.15,2013-11-11 04:58:00,
2013-11-10 23:59:00,42.2,28.9,30.21,West,269,4.0,6.0,59,0.00,,,0.00,0,Wunderground v.1.15,2013-11-11 04:59:00,